KC5DAQ-22 Weather Reports


time (UTC)temp
C
wind
direction
speed
KPH
gust
KPH
rain 1hr
cm
rain 24hr
cm
rain mn
cm
humidity
%
barometer
mb
20210224230711 25 252 6.4 14.5 0.00 0.00 0.00 67 1014.0
20210224230610 25 265 9.7 14.5 0.00 0.00 0.00 67 1014.0
20210224230523 25 278 8.0 14.5 0.00 0.00 0.00 67 1014.0
20210224230414 25 248 6.4 17.7 0.00 0.00 0.00 67 1014.0
20210224230317 25 272 6.4 17.7 0.00 0.00 0.00 68 1014.0
20210224230215 25 248 4.8 17.7 0.00 0.00 0.00 67 1014.1
20210224230113 25 257 4.8 17.7 0.00 0.00 0.00 67 1014.0
20210224230027 25 281 8.0 17.7 0.00 0.00 0.00 67 1014.0
20210224225914 25 216 8.0 17.7 0.00 0.00 0.00 67 1013.9
20210224225812 25 307 6.4 17.7 0.00 0.00 0.00 67 1013.9
20210224225710 25 226 6.4 17.7 0.00 0.00 0.00 67 1014.0
20210224225611 25 243 8.0 17.7 0.00 0.00 0.00 67 1014.0
20210224225523 25 296 8.0 17.7 0.00 0.00 0.00 67 1014.0
20210224225411 25 216 4.8 9.7 0.00 0.00 0.00 67 1014.0
20210224225311 25 264 4.8 11.3 0.00 0.00 0.00 67 1014.0
20210224225215 25 247 3.2 11.3 0.00 0.00 0.00 67 1014.1
20210224225114 25 252 4.8 11.3 0.00 0.00 0.00 67 1014.1
20210224225025 25 207 4.8 11.3 0.00 0.00 0.00 67 1014.1
20210224224918 25 214 4.8 11.3 0.00 0.00 0.00 67 1014.1
20210224224818 25 282 6.4 11.3 0.00 0.00 0.00 67 1014.1
20210224224715 25 251 6.4 11.3 0.00 0.00 0.00 67 1014.1
20210224224611 25 200 6.4 11.3 0.00 0.00 0.00 67 1014.0
20210224224522 25 255 6.4 16.1 0.00 0.00 0.00 67 1014.0
20210224224411 25 227 6.4 16.1 0.00 0.00 0.00 67 1014.0
20210224224316 25 276 6.4 16.1 0.00 0.00 0.00 67 1014.0
20210224224210 25 226 6.4 19.3 0.00 0.00 0.00 67 1013.9
20210224224112 25 220 6.4 19.3 0.00 0.00 0.00 67 1013.9
20210224224021 25 231 6.4 19.3 0.00 0.00 0.00 67 1013.9
20210224223912 25 224 6.4 19.3 0.00 0.00 0.00 67 1014.0
20210224223812 25 310 6.4 19.3 0.00 0.00 0.00 67 1014.0
20210224223712 25 224 8.0 19.3 0.00 0.00 0.00 67 1014.0
20210224223615 25 254 8.0 19.3 0.00 0.00 0.00 67 1014.0
20210224223517 25 228 6.4 19.3 0.00 0.00 0.00 67 1013.9
20210224223421 25 241 8.0 19.3 0.00 0.00 0.00 66 1014.0
20210224223310 25 243 8.0 19.3 0.00 0.00 0.00 67 1014.0
20210224223210 25 271 6.4 16.1 0.00 0.00 0.00 67 1014.0
20210224223110 25 274 6.4 16.1 0.00 0.00 0.00 67 1014.0
20210224223043 25 259 8.0 16.1 0.00 0.00 0.00 67 1013.9
20210224222955 25 238 8.0 17.7 0.00 0.00 0.00 67 1013.9
20210224222948 25 275 9.7 19.3 0.00 0.00 0.00 67 1014.0
20210224222930 25 233 9.7 19.3 0.00 0.00 0.00 67 1014.0
20210224222922 25 234 6.4 19.3 0.00 0.00 0.00 67 1014.0
20210224222738 25 272 4.8 19.3 0.00 0.00 0.00 67 1014.0
20210224222453 25 279 6.4 19.3 0.00 0.00 0.00 67 1014.0
20210224222326 25 264 6.4 19.3 0.00 0.00 0.00 67 1014.0
20210224222212 25 240 8.0 19.3 0.00 0.00 0.00 67 1014.0
20210224222118 25 247 9.7 19.3 0.00 0.00 0.00 67 1013.9
20210224222031 25 266 12.9 19.3 0.00 0.00 0.00 66 1014.0
20210224221917 25 295 12.9 19.3 0.00 0.00 0.00 66 1014.0
20210224221810 26 264 9.7 17.7 0.00 0.00 0.00 67 1014.0
20210224221711 26 257 9.7 17.7 0.00 0.00 0.00 67 1014.0
20210224221616 26 248 8.0 17.7 0.00 0.00 0.00 67 1014.0
20210224221524 26 223 6.4 20.9 0.00 0.00 0.00 66 1014.0
20210224221415 26 265 8.0 20.9 0.00 0.00 0.00 66 1014.0
20210224221311 26 265 8.0 20.9 0.00 0.00 0.00 66 1014.0
20210224221212 26 265 8.0 20.9 0.00 0.00 0.00 66 1014.0
20210224221113 26 265 8.0 20.9 0.00 0.00 0.00 66 1014.0
20210224221028 26 262 8.0 20.9 0.00 0.00 0.00 66 1014.0
20210224220913 26 265 6.4 22.5 0.00 0.00 0.00 66 1014.1
20210224220813 25 223 8.0 24.1 0.00 0.00 0.00 67 1014.0
20210224220713 25 257 11.3 24.1 0.00 0.00 0.00 67 1014.0
20210224220614 25 237 12.9 24.1 0.00 0.00 0.00 66 1014.0
20210224220520 26 233 11.3 24.1 0.00 0.00 0.00 66 1014.1
20210224220414 26 264 9.7 24.1 0.00 0.00 0.00 66 1014.1
20210224220314 26 223 9.7 24.1 0.00 0.00 0.00 66 1014.1
20210224220210 26 268 11.3 24.1 0.00 0.00 0.00 66 1014.1
20210224220114 26 192 14.5 24.1 0.00 0.00 0.00 67 1014.1
20210224220036 26 155 14.5 24.1 0.00 0.00 0.00 67 1014.0
20210224215915 26 169 12.9 24.1 0.00 0.00 0.00 66 1014.0
20210224215811 26 219 11.3 19.3 0.00 0.00 0.00 66 1014.1
20210224215711 26 190 9.7 19.3 0.00 0.00 0.00 67 1014.1
20210224215610 26 196 8.0 19.3 0.00 0.00 0.00 68 1014.1
20210224215523 26 251 9.7 19.3 0.00 0.00 0.00 67 1014.1
20210224215456 26 248 9.7 19.3 0.00 0.00 0.00 67 1014.1
20210224215440 26 238 8.0 19.3 0.00 0.00 0.00 67 1014.1
20210224215414 26 195 9.7 19.3 0.00 0.00 0.00 67 1014.1
20210224215407 26 238 9.7 19.3 0.00 0.00 0.00 67 1014.1
20210224215221 26 233 11.3 19.3 0.00 0.00 0.00 66 1014.1
20210224215119 26 247 11.3 19.3 0.00 0.00 0.00 66 1014.1
20210224214914 26 207 9.7 19.3 0.00 0.00 0.00 66 1014.1
20210224214716 26 159 9.7 19.3 0.00 0.00 0.00 66 1014.1
20210224214617 26 224 9.7 19.3 0.00 0.00 0.00 66 1014.1
20210224214524 26 251 8.0 19.3 0.00 0.00 0.00 66 1014.1
20210224214410 26 247 9.7 19.3 0.00 0.00 0.00 66 1014.2
20210224214316 26 189 11.3 19.3 0.00 0.00 0.00 66 1014.1
20210224214209 26 233 11.3 19.3 0.00 0.00 0.00 67 1014.2
20210224214112 26 219 11.3 20.9 0.00 0.00 0.00 67 1014.2
20210224214027 26 172 6.4 20.9 0.00 0.00 0.00 67 1014.2
20210224213911 26 203 3.2 20.9 0.00 0.00 0.00 68 1014.2
20210224213810 25 252 3.2 20.9 0.00 0.00 0.00 68 1014.2
20210224213710 25 282 6.4 20.9 0.00 0.00 0.00 67 1014.2
20210224213611 25 207 8.0 20.9 0.00 0.00 0.00 68 1014.2
20210224213520 25 227 9.7 20.9 0.00 0.00 0.00 68 1014.2
20210224213411 26 257 11.3 20.9 0.00 0.00 0.00 68 1014.1
20210224213311 26 244 11.3 20.9 0.00 0.00 0.00 67 1014.2
20210224213213 26 262 11.3 20.9 0.00 0.00 0.00 68 1014.1
20210224213115 26 224 9.7 20.9 0.00 0.00 0.00 67 1014.1
20210224213028 26 230 9.7 22.5 0.00 0.00 0.00 67 1014.2
20210224212927 26 237 11.3 22.5 0.00 0.00 0.00 67 1014.1
20210224212918 26 228 11.3 22.5 0.00 0.00 0.00 67 1014.2
20210224212911 26 271 9.7 22.5 0.00 0.00 0.00 67 1014.2
20210224212757 26 235 9.7 22.5 0.00 0.00 0.00 66 1014.3
20210224212627 26 224 8.0 22.5 0.00 0.00 0.00 66 1014.3
20210224212436 26 185 8.0 22.5 0.00 0.00 0.00 66 1014.2
20210224212310 26 195 9.7 22.5 0.00 0.00 0.00 66 1014.2
20210224212211 26 234 9.7 22.5 0.00 0.00 0.00 66 1014.2
20210224212111 26 216 12.9 24.1 0.00 0.00 0.00 66 1014.2
20210224212025 26 202 12.9 24.1 0.00 0.00 0.00 67 1014.2
20210224211916 26 140 9.7 24.1 0.00 0.00 0.00 67 1014.2
20210224211816 26 231 11.3 24.1 0.00 0.00 0.00 67 1014.3
20210224211712 26 231 11.3 24.1 0.00 0.00 0.00 67 1014.2
20210224211611 26 221 11.3 24.1 0.00 0.00 0.00 67 1014.2
20210224211529 26 213 9.7 24.1 0.00 0.00 0.00 67 1014.2
20210224211412 26 200 9.7 24.1 0.00 0.00 0.00 68 1014.3
20210224211314 25 240 12.9 24.1 0.00 0.00 0.00 68 1014.3
20210224211212 25 207 14.5 24.1 0.00 0.00 0.00 68 1014.3
20210224211115 25 217 14.5 22.5 0.00 0.00 0.00 68 1014.3
20210224211022 25 203 11.3 22.5 0.00 0.00 0.00 68 1014.3
20210224210918 25 213 9.7 20.9 0.00 0.00 0.00 69 1014.2
20210224210822 25 252 11.3 20.9 0.00 0.00 0.00 69 1014.4
20210224210711 25 227 12.9 20.9 0.00 0.00 0.00 69 1014.3
20210224210614 25 196 12.9 20.9 0.00 0.00 0.00 69 1014.3
20210224210523 25 209 12.9 24.1 0.00 0.00 0.00 68 1014.4
20210224210414 25 193 12.9 25.7 0.00 0.00 0.00 68 1014.4
20210224210312 25 251 12.9 25.7 0.00 0.00 0.00 68 1014.4
20210224210214 25 209 12.9 25.7 0.00 0.00 0.00 68 1014.3
20210224210111 25 223 11.3 25.7 0.00 0.00 0.00 68 1014.4
20210224210020 25 235 9.7 25.7 0.00 0.00 0.00 68 1014.3
20210224205911 25 212 9.7 25.7 0.00 0.00 0.00 68 1014.3
20210224205810 25 266 9.7 27.4 0.00 0.00 0.00 68 1014.3
20210224205714 25 233 14.5 27.4 0.00 0.00 0.00 68 1014.3
20210224205612 25 217 17.7 27.4 0.00 0.00 0.00 68 1014.3
20210224205518 25 204 16.1 27.4 0.00 0.00 0.00 68 1014.3
20210224205410 25 193 14.5 27.4 0.00 0.00 0.00 68 1014.2
20210224205325 25 190 12.9 27.4 0.00 0.00 0.00 68 1014.2
20210224205318 25 148 11.3 27.4 0.00 0.00 0.00 68 1014.2
20210224205259 25 243 11.3 27.4 0.00 0.00 0.00 68 1014.2
20210224205108 25 219 14.5 27.4 0.00 0.00 0.00 68 1014.3
20210224204936 26 258 12.9 27.4 0.00 0.00 0.00 68 1014.3
20210224204835 26 200 9.7 24.1 0.00 0.00 0.00 68 1014.2
20210224204712 26 172 11.3 24.1 0.00 0.00 0.00 67 1014.3
20210224204614 26 250 9.7 24.1 0.00 0.00 0.00 67 1014.3
20210224204520 26 250 9.7 24.1 0.00 0.00 0.00 67 1014.4
20210224204412 26 250 9.7 24.1 0.00 0.00 0.00 67 1014.3
20210224204312 26 216 9.7 24.1 0.00 0.00 0.00 67 1014.3
20210224204211 26 237 14.5 24.1 0.00 0.00 0.00 67 1014.3
20210224204111 26 231 17.7 24.1 0.00 0.00 0.00 67 1014.3
20210224204020 26 227 14.5 22.5 0.00 0.00 0.00 66 1014.3
20210224203913 26 172 11.3 22.5 0.00 0.00 0.00 67 1014.3
20210224203813 26 219 9.7 27.4 0.00 0.00 0.00 66 1014.2
20210224203714 26 202 11.3 27.4 0.00 0.00 0.00 66 1014.2
20210224203610 26 207 9.7 27.4 0.00 0.00 0.00 66 1014.2
20210224203526 26 199 9.7 27.4 0.00 0.00 0.00 67 1014.2
20210224203410 26 230 11.3 27.4 0.00 0.00 0.00 67 1014.2
20210224203310 26 220 11.3 27.4 0.00 0.00 0.00 66 1014.1
20210224203214 26 300 9.7 30.6 0.00 0.00 0.00 65 1014.1
20210224203117 26 247 8.0 30.6 0.00 0.00 0.00 65 1014.2
20210224203023 26 261 11.3 30.6 0.00 0.00 0.00 65 1014.0
20210224202927 26 235 14.5 30.6 0.00 0.00 0.00 65 1014.1
20210224202918 26 161 12.9 30.6 0.00 0.00 0.00 66 1014.1
20210224202856 26 228 11.3 30.6 0.00 0.00 0.00 66 1014.2
20210224202802 26 169 11.3 30.6 0.00 0.00 0.00 68 1014.1
20210224202604 26 216 12.9 30.6 0.00 0.00 0.00 68 1014.1
20210224202427 26 268 17.7 30.6 0.00 0.00 0.00 67 1014.2
20210224202312 26 257 20.9 30.6 0.00 0.00 0.00 67 1014.2
20210224202210 26 216 19.3 30.6 0.00 0.00 0.00 67 1014.2
20210224202111 26 227 16.1 27.4 0.00 0.00 0.00 67 1014.2
20210224202021 26 195 12.9 27.4 0.00 0.00 0.00 67 1014.2
20210224201917 26 286 11.3 27.4 0.00 0.00 0.00 66 1014.2
20210224201813 26 258 11.3 27.4 0.00 0.00 0.00 66 1014.2
20210224201713 26 233 12.9 27.4 0.00 0.00 0.00 66 1014.2
20210224201614 26 199 14.5 27.4 0.00 0.00 0.00 66 1014.2
20210224201517 26 227 14.5 27.4 0.00 0.00 0.00 66 1014.2
20210224201411 26 189 12.9 30.6 0.00 0.00 0.00 65 1014.2
20210224201312 26 226 14.5 30.6 0.00 0.00 0.00 66 1014.3
20210224201213 26 259 14.5 30.6 0.00 0.00 0.00 65 1014.3
20210224201113 26 227 11.3 30.6 0.00 0.00 0.00 66 1014.3
20210224201023 26 195 11.3 30.6 0.00 0.00 0.00 66 1014.3
20210224200911 26 180 12.9 30.6 0.00 0.00 0.00 66 1014.3
20210224200811 26 210 12.9 30.6 0.00 0.00 0.00 66 1014.3
20210224200713 26 243 12.9 30.6 0.00 0.00 0.00 67 1014.3
20210224200611 26 207 16.1 30.6 0.00 0.00 0.00 67 1014.4
20210224200521 26 244 17.7 30.6 0.00 0.00 0.00 66 1014.3
20210224200412 26 221 17.7 25.7 0.00 0.00 0.00 67 1014.4
20210224200312 26 214 12.9 25.7 0.00 0.00 0.00 68 1014.3
20210224200212 26 195 11.3 20.9 0.00 0.00 0.00 69 1014.4
20210224200111 25 237 11.3 20.9 0.00 0.00 0.00 69 1014.3
20210224200029 25 200 8.0 20.9 0.00 0.00 0.00 70 1014.3
20210224195910 25 264 9.7 22.5 0.00 0.00 0.00 70 1014.4
20210224195813 25 204 11.3 27.4 0.00 0.00 0.00 69 1014.4
20210224195713 25 258 11.3 27.4 0.00 0.00 0.00 69 1014.5
20210224195610 25 258 12.9 27.4 0.00 0.00 0.00 69 1014.4
20210224195525 25 230 12.9 27.4 0.00 0.00 0.00 69 1014.4
20210224195416 25 250 9.7 27.4 0.00 0.00 0.00 69 1014.5
20210224195405 25 283 11.3 27.4 0.00 0.00 0.00 70 1014.5
20210224195358 25 235 12.9 27.4 0.00 0.00 0.00 69 1014.5
20210224195349 25 248 14.5 27.4 0.00 0.00 0.00 69 1014.6
20210224195221 25 213 16.1 27.4 0.00 0.00 0.00 69 1014.5
20210224195104 25 264 14.5 27.4 0.00 0.00 0.00 68 1014.5
20210224194924 25 199 11.3 27.4 0.00 0.00 0.00 69 1014.5
20210224194711 25 199 11.3 27.4 0.00 0.00 0.00 69 1014.5
20210224194613 25 203 11.3 27.4 0.00 0.00 0.00 69 1014.5
20210224194523 25 223 14.5 27.4 0.00 0.00 0.00 69 1014.6
20210224194412 25 250 17.7 27.4 0.00 0.00 0.00 69 1014.6
20210224194312 25 196 16.1 27.4 0.00 0.00 0.00 69 1014.6
20210224194210 25 220 16.1 27.4 0.00 0.00 0.00 69 1014.6
20210224194110 25 214 17.7 27.4 0.00 0.00 0.00 69 1014.6
20210224194022 25 226 14.5 27.4 0.00 0.00 0.00 71 1014.6
20210224193910 25 213 12.9 24.1 0.00 0.00 0.00 71 1014.6
20210224193810 25 202 14.5 24.1 0.00 0.00 0.00 72 1014.7
20210224193714 25 192 12.9 24.1 0.00 0.00 0.00 71 1014.8
20210224193616 25 269 14.5 24.1 0.00 0.00 0.00 71 1014.7
20210224193536 25 209 14.5 24.1 0.00 0.00 0.00 71 1014.8
20210224193411 25 190 12.9 24.1 0.00 0.00 0.00 71 1014.7
20210224193311 25 192 12.9 24.1 0.00 0.00 0.00 71 1014.7
20210224193209 25 202 16.1 24.1 0.00 0.00 0.00 71 1014.8
20210224193111 25 238 14.5 24.1 0.00 0.00 0.00 71 1014.8
20210224193030 25 207 11.3 24.1 0.00 0.00 0.00 71 1014.8
20210224192926 25 223 9.7 24.1 0.00 0.00 0.00 71 1014.8
20210224192920 25 204 9.7 24.1 0.00 0.00 0.00 71 1014.8
20210224192909 25 185 11.3 24.1 0.00 0.00 0.00 71 1014.9
20210224192755 25 221 14.5 24.1 0.00 0.00 0.00 71 1014.9
20210224192556 25 214 12.9 24.1 0.00 0.00 0.00 71 1014.8
20210224192416 25 228 9.7 24.1 0.00 0.00 0.00 71 1014.9
20210224192316 25 220 6.4 24.1 0.00 0.00 0.00 70 1014.9
20210224192213 25 250 9.7 24.1 0.00 0.00 0.00 71 1014.9
20210224192111 25 220 11.3 24.1 0.00 0.00 0.00 71 1014.9
20210224192022 25 195 14.5 24.1 0.00 0.00 0.00 71 1014.9
20210224191911 25 183 14.5 24.1 0.00 0.00 0.00 71 1015.0
20210224191820 25 207 9.7 20.9 0.00 0.00 0.00 71 1014.9
20210224191710 25 189 6.4 19.3 0.00 0.00 0.00 72 1015.0
20210224191611 25 240 8.0 20.9 0.00 0.00 0.00 72 1015.0
20210224191524 25 209 9.7 22.5 0.00 0.00 0.00 72 1015.0
20210224191413 25 217 9.7 22.5 0.00 0.00 0.00 72 1015.0
20210224191310 25 193 11.3 22.5 0.00 0.00 0.00 72 1015.1
20210224191211 24 223 9.7 22.5 0.00 0.00 0.00 72 1015.1
20210224191112 24 230 9.7 22.5 0.00 0.00 0.00 72 1015.1
20210224191020 24 252 9.7 22.5 0.00 0.00 0.00 72 1015.1
20210224190911 24 252 12.9 22.5 0.00 0.00 0.00 72 1015.1
20210224190810 24 259 16.1 22.5 0.00 0.00 0.00 72 1015.1
20210224190718 24 248 14.5 22.5 0.00 0.00 0.00 73 1015.2
20210224190611 24 176 12.9 22.5 0.00 0.00 0.00 73 1015.3
20210224190517 24 227 11.3 22.5 0.00 0.00 0.00 73 1015.2
20210224190410 24 223 11.3 22.5 0.00 0.00 0.00 74 1015.2
20210224190313 24 235 12.9 20.9 0.00 0.00 0.00 74 1015.3
20210224190211 24 251 12.9 20.9 0.00 0.00 0.00 74 1015.3
20210224190111 24 207 11.3 20.9 0.00 0.00 0.00 74 1015.3
20210224190028 24 212 9.7 20.9 0.00 0.00 0.00 74 1015.3
20210224185911 24 248 6.4 20.9 0.00 0.00 0.00 74 1015.4
20210224185810 24 244 8.0 20.9 0.00 0.00 0.00 74 1015.4
20210224185714 24 235 11.3 20.9 0.00 0.00 0.00 73 1015.4
20210224185611 24 203 11.3 20.9 0.00 0.00 0.00 73 1015.4
20210224185516 24 200 11.3 20.9 0.00 0.00 0.00 73 1015.4
20210224185441 24 227 8.0 19.3 0.00 0.00 0.00 73 1015.4
20210224185422 24 180 8.0 20.9 0.00 0.00 0.00 73 1015.4
20210224185353 24 216 11.3 24.1 0.00 0.00 0.00 73 1015.4
20210224185340 24 216 11.3 24.1 0.00 0.00 0.00 73 1015.4
20210224185322 24 180 9.7 24.1 0.00 0.00 0.00 73 1015.3
20210224185120 24 227 11.3 24.1 0.00 0.00 0.00 73 1015.3
20210224184902 24 212 11.3 24.1 0.00 0.00 0.00 74 1015.3
20210224184710 24 209 11.3 24.1 0.00 0.00 0.00 73 1015.3
20210224184611 24 216 9.7 24.1 0.00 0.00 0.00 74 1015.4
20210224184524 24 189 12.9 24.1 0.00 0.00 0.00 74 1015.4
20210224184411 24 241 16.1 24.1 0.00 0.00 0.00 74 1015.4
20210224184310 24 216 16.1 24.1 0.00 0.00 0.00 74 1015.4
20210224184212 24 240 12.9 24.1 0.00 0.00 0.00 74 1015.4
20210224184114 24 220 11.3 22.5 0.00 0.00 0.00 74 1015.5
20210224184019 24 210 9.7 22.5 0.00 0.00 0.00 74 1015.5
20210224183911 24 234 9.7 22.5 0.00 0.00 0.00 74 1015.5
20210224183813 24 235 9.7 22.5 0.00 0.00 0.00 74 1015.6
20210224183711 24 223 11.3 22.5 0.00 0.00 0.00 74 1015.6
20210224183613 24 227 12.9 22.5 0.00 0.00 0.00 74 1015.5
20210224183523 24 248 12.9 22.5 0.00 0.00 0.00 74 1015.6
20210224183411 24 214 12.9 22.5 0.00 0.00 0.00 74 1015.6
20210224183310 24 179 11.3 19.3 0.00 0.00 0.00 74 1015.6
20210224183214 24 221 9.7 19.3 0.00 0.00 0.00 74 1015.6
20210224183115 24 262 8.0 19.3 0.00 0.00 0.00 74 1015.6
20210224183043 24 179 8.0 24.1 0.00 0.00 0.00 74 1015.6
20210224182911 24 252 9.7 24.1 0.00 0.00 0.00 74 1015.7
20210224182900 24 226 6.4 24.1 0.00 0.00 0.00 75 1015.7
20210224182834 24 233 6.4 24.1 0.00 0.00 0.00 75 1015.6
20210224182721 23 231 8.0 24.1 0.00 0.00 0.00 75 1015.6
20210224182610 23 233 11.3 24.1 0.00 0.00 0.00 75 1015.7
20210224182432 23 259 11.3 24.1 0.00 0.00 0.00 75 1015.7
20210224182317 23 207 9.7 24.1 0.00 0.00 0.00 75 1015.7
20210224182210 23 169 12.9 24.1 0.00 0.00 0.00 74 1015.8
20210224182111 23 178 12.9 24.1 0.00 0.00 0.00 75 1015.8
20210224182032 23 220 11.3 20.9 0.00 0.00 0.00 75 1015.7
20210224181910 23 231 11.3 20.9 0.00 0.00 0.00 74 1015.8
20210224181812 23 195 11.3 20.9 0.00 0.00 0.00 75 1015.8
20210224181719 23 230 9.7 20.9 0.00 0.00 0.00 74 1015.9
20210224181614 23 234 9.7 20.9 0.00 0.00 0.00 75 1015.9
20210224181529 23 220 12.9 20.9 0.00 0.00 0.00 74 1015.9
20210224181414 23 161 9.7 19.3 0.00 0.00 0.00 74 1015.9
20210224181312 23 195 8.0 19.3 0.00 0.00 0.00 75 1016.0
20210224181211 23 278 9.7 19.3 0.00 0.00 0.00 75 1016.0
20210224181114 23 203 11.3 19.3 0.00 0.00 0.00 75 1016.0
20210224181019 23 192 9.7 16.1 0.00 0.00 0.00 75 1016.0
20210224180912 23 219 11.3 16.1 0.00 0.00 0.00 75 1016.1
20210224180810 23 202 9.7 17.7 0.00 0.00 0.00 74 1016.1
20210224180711 23 189 8.0 17.7 0.00 0.00 0.00 74 1016.1
20210224180611 23 190 9.7 17.7 0.00 0.00 0.00 74 1016.2
20210224180527 23 227 9.7 17.7 0.00 0.00 0.00 74 1016.1
20210224180413 23 219 8.0 20.9 0.00 0.00 0.00 74 1016.1
20210224180314 23 209 6.4 20.9 0.00 0.00 0.00 74 1016.2
20210224180217 23 183 8.0 20.9 0.00 0.00 0.00 74 1016.2
20210224180123 23 188 8.0 20.9 0.00 0.00 0.00 74 1016.2
20210224180033 23 214 11.3 20.9 0.00 0.00 0.00 74 1016.2
20210224175911 23 213 9.7 20.9 0.00 0.00 0.00 74 1016.2
20210224175813 23 228 8.0 20.9 0.00 0.00 0.00 74 1016.2
20210224175711 23 247 8.0 20.9 0.00 0.00 0.00 74 1016.2
20210224175616 23 230 12.9 20.9 0.00 0.00 0.00 74 1016.2
20210224175523 23 169 11.3 20.9 0.00 0.00 0.00 74 1016.2
20210224175414 23 217 8.0 20.9 0.00 0.00 0.00 74 1016.3
20210224175342 23 237 9.7 20.9 0.00 0.00 0.00 74 1016.3
20210224175326 23 276 9.7 25.7 0.00 0.00 0.00 74 1016.2
20210224175300 23 220 9.7 25.7 0.00 0.00 0.00 75 1016.2
20210224175112 23 169 9.7 25.7 0.00 0.00 0.00 75 1016.3
20210224174938 23 219 11.3 25.7 0.00 0.00 0.00 75 1016.3
20210224174812 23 214 12.9 25.7 0.00 0.00 0.00 75 1016.3
20210224174714 23 276 14.5 25.7 0.00 0.00 0.00 75 1016.3
20210224174611 23 275 12.9 25.7 0.00 0.00 0.00 75 1016.4
20210224174532 23 226 12.9 25.7 0.00 0.00 0.00 75 1016.3
20210224174411 23 234 14.5 25.7 0.00 0.00 0.00 75 1016.4
20210224174311 23 243 14.5 25.7 0.00 0.00 0.00 75 1016.3
20210224174212 23 233 12.9 25.7 0.00 0.00 0.00 75 1016.4
20210224174114 23 231 16.1 25.7 0.00 0.00 0.00 75 1016.4
20210224174025 23 212 14.5 25.7 0.00 0.00 0.00 75 1016.4
20210224173910 23 244 14.5 25.7 0.00 0.00 0.00 75 1016.4
20210224173810 23 237 16.1 25.7 0.00 0.00 0.00 75 1016.5
20210224173711 23 203 14.5 25.7 0.00 0.00 0.00 75 1016.4
20210224173610 23 265 12.9 25.7 0.00 0.00 0.00 74 1016.4
20210224173518 23 217 11.3 25.7 0.00 0.00 0.00 74 1016.5
20210224173411 23 233 12.9 25.7 0.00 0.00 0.00 74 1016.5
20210224173311 23 245 14.5 25.7 0.00 0.00 0.00 74 1016.6
20210224173212 23 213 11.3 25.7 0.00 0.00 0.00 74 1016.5
20210224173110 23 281 11.3 25.7 0.00 0.00 0.00 74 1016.6
20210224173033 23 235 14.5 25.7 0.00 0.00 0.00 74 1016.7
20210224172911 23 257 16.1 25.7 0.00 0.00 0.00 74 1016.7
20210224172851 23 275 16.1 25.7 0.00 0.00 0.00 74 1016.6
20210224172806 23 259 12.9 25.7 0.00 0.00 0.00 74 1016.6
20210224172715 23 159 12.9 22.5 0.00 0.00 0.00 74 1016.7
20210224172534 23 206 14.5 29.0 0.00 0.00 0.00 74 1016.7
20210224172425 23 241 11.3 29.0 0.00 0.00 0.00 75 1016.7
20210224172312 23 283 8.0 29.0 0.00 0.00 0.00 75 1016.7
20210224172211 23 226 11.3 29.0 0.00 0.00 0.00 75 1016.7
20210224172111 23 226 12.9 30.6 0.00 0.00 0.00 76 1016.7
20210224172029 23 257 11.3 30.6 0.00 0.00 0.00 76 1016.7
20210224171914 23 274 9.7 30.6 0.00 0.00 0.00 76 1016.7
20210224171813 23 176 12.9 30.6 0.00 0.00 0.00 76 1016.6
20210224171753 23 220 17.7 33.8 0.00 0.00 0.00 76 1016.7
20210224171613 23 268 17.7 33.8 0.00 0.00 0.00 76 1016.7
20210224171523 23 259 14.5 33.8 0.00 0.00 0.00 76 1016.7
20210224171410 23 231 16.1 33.8 0.00 0.00 0.00 76 1016.6
20210224171313 23 210 19.3 33.8 0.00 0.00 0.00 76 1016.6
20210224171210 23 259 17.7 33.8 0.00 0.00 0.00 75 1016.6
20210224171110 23 243 14.5 33.8 0.00 0.00 0.00 75 1016.6
20210224171017 23 188 16.1 33.8 0.00 0.00 0.00 75 1016.5
20210224170911 23 240 17.7 33.8 0.00 0.00 0.00 75 1016.6
20210224170812 23 248 16.1 33.8 0.00 0.00 0.00 75 1016.5
20210224170711 23 188 16.1 30.6 0.00 0.00 0.00 75 1016.5
20210224170613 23 197 19.3 30.6 0.00 0.00 0.00 75 1016.5
20210224170522 23 224 17.7 30.6 0.00 0.00 0.00 75 1016.5
20210224170410 23 261 16.1 30.6 0.00 0.00 0.00 75 1016.6
20210224170312 23 233 16.1 30.6 0.00 0.00 0.00 75 1016.6
20210224170216 23 188 14.5 30.6 0.00 0.00 0.00 75 1016.5
20210224170110 23 223 12.9 25.7 0.00 0.00 0.00 75 1016.4
20210224170032 23 227 11.3 22.5 0.00 0.00 0.00 75 1016.5
20210224165913 23 219 8.0 20.9 0.00 0.00 0.00 75 1016.4
20210224165810 23 237 6.4 20.9 0.00 0.00 0.00 76 1016.5
20210224165710 23 210 8.0 20.9 0.00 0.00 0.00 76 1016.4
20210224165613 23 254 8.0 20.9 0.00 0.00 0.00 76 1016.5
20210224165531 23 221 11.3 20.9 0.00 0.00 0.00 75 1016.4
20210224165412 23 234 11.3 20.9 0.00 0.00 0.00 75 1016.4
20210224165316 23 183 11.3 19.3 0.00 0.00 0.00 75 1016.5
20210224165307 23 224 11.3 19.3 0.00 0.00 0.00 75 1016.4
20210224165230 23 183 9.7 27.4 0.00 0.00 0.00 75 1016.4
20210224165106 23 214 9.7 32.2 0.00 0.00 0.00 76 1016.3
20210224164941 23 206 9.7 32.2 0.00 0.00 0.00 76 1016.4
20210224164828 23 224 9.7 32.2 0.00 0.00 0.00 76 1016.4
20210224164711 23 210 11.3 32.2 0.00 0.00 0.00 75 1016.4
20210224164616 23 210 11.3 32.2 0.00 0.00 0.00 75 1016.4
20210224164523 23 210 11.3 32.2 0.00 0.00 0.00 75 1016.4
20210224164413 23 210 11.3 32.2 0.00 0.00 0.00 75 1016.4
20210224164311 23 188 16.1 32.2 0.00 0.00 0.00 75 1016.4
20210224164211 23 178 17.7 32.2 0.00 0.00 0.00 75 1016.4
20210224164121 23 196 12.9 32.2 0.00 0.00 0.00 76 1016.4
20210224164021 23 206 8.0 27.4 0.00 0.00 0.00 76 1016.4
20210224163912 23 186 8.0 27.4 0.00 0.00 0.00 76 1016.4
20210224163815 23 258 9.7 27.4 0.00 0.00 0.00 76 1016.4
20210224163710 23 203 9.7 27.4 0.00 0.00 0.00 76 1016.4
20210224163610 23 216 9.7 27.4 0.00 0.00 0.00 77 1016.4
20210224163523 23 226 9.7 27.4 0.00 0.00 0.00 77 1016.4
20210224163410 23 227 12.9 27.4 0.00 0.00 0.00 77 1016.5
20210224163312 23 204 16.1 27.4 0.00 0.00 0.00 77 1016.4
20210224163212 23 282 16.1 30.6 0.00 0.00 0.00 77 1016.4
20210224163112 23 213 14.5 30.6 0.00 0.00 0.00 77 1016.4
20210224163020 22 220 14.5 30.6 0.00 0.00 0.00 78 1016.4
20210224162912 22 219 16.1 30.6 0.00 0.00 0.00 78 1016.3
20210224162815 22 227 17.7 30.6 0.00 0.00 0.00 77 1016.3
20210224162729 22 207 17.7 30.6 0.00 0.00 0.00 77 1016.3
20210224162634 22 192 14.5 30.6 0.00 0.00 0.00 77 1016.4
20210224162543 22 220 14.5 30.6 0.00 0.00 0.00 77 1016.3
20210224162415 22 185 16.1 30.6 0.00 0.00 0.00 77 1016.3
20210224162312 22 210 17.7 30.6 0.00 0.00 0.00 77 1016.3
20210224162213 22 219 14.5 29.0 0.00 0.00 0.00 78 1016.3
20210224162117 22 203 12.9 29.0 0.00 0.00 0.00 78 1016.3
20210224162025 22 206 14.5 30.6 0.00 0.00 0.00 78 1016.3
20210224161915 22 274 14.5 30.6 0.00 0.00 0.00 78 1016.2
20210224161812 22 224 12.9 32.2 0.00 0.00 0.00 78 1016.2
20210224161710 22 244 14.5 32.2 0.00 0.00 0.00 79 1016.3
20210224161613 22 180 12.9 32.2 0.00 0.00 0.00 79 1016.2
20210224161524 22 195 11.3 32.2 0.00 0.00 0.00 79 1016.2
20210224161410 22 210 17.7 32.2 0.00 0.00 0.00 79 1016.2
20210224161311 22 228 20.9 32.2 0.00 0.00 0.00 79 1016.2
20210224161212 22 202 16.1 32.2 0.00 0.00 0.00 79 1016.2
20210224161116 22 214 16.1 32.2 0.00 0.00 0.00 79 1016.3
20210224161027 22 200 17.7 32.2 0.00 0.00 0.00 80 1016.2
20210224160912 22 185 14.5 32.2 0.00 0.00 0.00 80 1016.3
20210224160818 22 220 9.7 24.1 0.00 0.00 0.00 81 1016.3
20210224160711 22 230 14.5 24.1 0.00 0.00 0.00 81 1016.3
20210224160610 22 212 12.9 24.1 0.00 0.00 0.00 81 1016.2
20210224160522 22 224 12.9 24.1 0.00 0.00 0.00 81 1016.3
20210224160410 22 226 12.9 24.1 0.00 0.00 0.00 81 1016.3
20210224160311 22 221 12.9 24.1 0.00 0.00 0.00 81 1016.3
20210224160214 22 255 14.5 24.1 0.00 0.00 0.00 81 1016.3
20210224160112 22 220 16.1 24.1 0.00 0.00 0.00 81 1016.3
20210224160028 22 213 12.9 24.1 0.00 0.00 0.00 81 1016.3
20210224155913 22 154 9.7 20.9 0.00 0.00 0.00 82 1016.3
20210224155816 22 243 9.7 20.9 0.00 0.00 0.00 82 1016.3
20210224155711 22 197 11.3 20.9 0.00 0.00 0.00 82 1016.3
20210224155611 22 228 11.3 20.9 0.00 0.00 0.00 83 1016.3
20210224155522 21 248 9.7 20.9 0.00 0.00 0.00 83 1016.3
20210224155414 21 276 11.3 20.9 0.00 0.00 0.00 83 1016.2
20210224155346 21 283 9.7 20.9 0.00 0.00 0.00 83 1016.3
20210224155334 21 178 9.7 20.9 0.00 0.00 0.00 83 1016.2
20210224155231 21 227 12.9 20.9 0.00 0.00 0.00 83 1016.2
20210224155046 21 206 12.9 20.9 0.00 0.00 0.00 83 1016.3
20210224154943 21 209 11.3 20.9 0.00 0.00 0.00 84 1016.3
20210224154825 21 258 9.7 20.9 0.00 0.00 0.00 84 1016.3
20210224154728 21 265 11.3 20.9 0.00 0.00 0.00 84 1016.3
20210224154611 21 193 11.3 20.9 0.00 0.00 0.00 84 1016.2
20210224154523 21 195 8.0 20.9 0.00 0.00 0.00 84 1016.2
20210224154415 21 252 8.0 20.9 0.00 0.00 0.00 85 1016.2
20210224154310 21 237 11.3 20.9 0.00 0.00 0.00 85 1016.3
20210224154209 21 192 9.7 20.9 0.00 0.00 0.00 85 1016.3
20210224154115 21 189 9.7 20.9 0.00 0.00 0.00 85 1016.3
20210224154019 21 258 11.3 20.9 0.00 0.00 0.00 85 1016.2
20210224153911 21 228 11.3 20.9 0.00 0.00 0.00 85 1016.3
20210224153810 21 183 11.3 20.9 0.00 0.00 0.00 85 1016.2
20210224153710 21 192 8.0 17.7 0.00 0.00 0.00 85 1016.3
20210224153610 21 219 6.4 19.3 0.00 0.00 0.00 85 1016.2
20210224153524 21 268 8.0 25.7 0.00 0.00 0.00 85 1016.3
20210224153414 21 221 6.4 25.7 0.00 0.00 0.00 85 1016.3
20210224153310 21 180 6.4 25.7 0.00 0.00 0.00 86 1016.2
20210224153210 21 212 8.0 25.7 0.00 0.00 0.00 86 1016.2
20210224153112 21 227 9.7 25.7 0.00 0.00 0.00 86 1016.2
20210224153023 21 217 8.0 25.7 0.00 0.00 0.00 86 1016.2
20210224152910 21 204 11.3 25.7 0.00 0.00 0.00 86 1016.1
20210224152818 21 216 14.5 25.7 0.00 0.00 0.00 86 1016.1
20210224152723 21 188 14.5 25.7 0.00 0.00 0.00 86 1016.1
20210224152637 21 219 12.9 25.7 0.00 0.00 0.00 85 1016.0
20210224152544 21 202 12.9 20.9 0.00 0.00 0.00 85 1016.0
20210224152414 21 216 11.3 20.9 0.00 0.00 0.00 86 1016.0
20210224152321 21 206 12.9 19.3 0.00 0.00 0.00 86 1016.0
20210224152211 21 175 9.7 24.1 0.00 0.00 0.00 86 1016.0
20210224152111 21 186 9.7 24.1 0.00 0.00 0.00 86 1016.0
20210224152022 21 212 11.3 24.1 0.00 0.00 0.00 86 1016.1
20210224151911 20 230 9.7 24.1 0.00 0.00 0.00 86 1016.0
20210224151813 20 159 9.7 24.1 0.00 0.00 0.00 86 1015.9
20210224151720 20 186 9.7 24.1 0.00 0.00 0.00 86 1015.9
20210224151612 20 219 9.7 24.1 0.00 0.00 0.00 86 1016.0
20210224151524 20 206 9.7 24.1 0.00 0.00 0.00 86 1016.0
20210224151411 20 183 12.9 24.1 0.00 0.00 0.00 87 1015.9
20210224151310 20 182 11.3 24.1 0.00 0.00 0.00 87 1016.0
20210224151217 20 193 6.4 22.5 0.00 0.00 0.00 87 1016.0
20210224151121 20 213 6.4 22.5 0.00 0.00 0.00 87 1016.0
20210224151039 20 223 8.0 22.5 0.00 0.00 0.00 88 1016.0
20210224150915 20 231 8.0 22.5 0.00 0.00 0.00 88 1015.9
20210224150811 20 159 11.3 22.5 0.00 0.00 0.00 88 1016.0
20210224150712 20 216 12.9 22.5 0.00 0.00 0.00 88 1016.0
20210224150610 20 161 11.3 19.3 0.00 0.00 0.00 88 1015.9
20210224150519 20 210 9.7 19.3 0.00 0.00 0.00 88 1015.9
20210224150415 20 179 8.0 19.3 0.00 0.00 0.00 88 1016.0
20210224150315 20 179 8.0 19.3 0.00 0.00 0.00 88 1015.9
20210224150212 20 179 8.0 19.3 0.00 0.00 0.00 88 1016.0
20210224150111 20 213 8.0 19.3 0.00 0.00 0.00 88 1016.0
20210224150024 20 271 9.7 19.3 0.00 0.00 0.00 88 1016.0
20210224145914 19 200 9.7 19.3 0.00 0.00 0.00 88 1016.0
20210224145812 19 188 8.0 14.5 0.00 0.00 0.00 88 1016.0
20210224145709 19 227 6.4 14.5 0.00 0.00 0.00 88 1016.1
20210224145612 19 250 4.8 14.5 0.00 0.00 0.00 88 1016.0
20210224145521 19 179 6.4 14.5 0.00 0.00 0.00 88 1016.0
20210224145410 19 227 8.0 14.5 0.00 0.00 0.00 89 1016.0
20210224145325 19 193 8.0 14.5 0.00 0.00 0.00 89 1016.0
20210224145316 19 224 6.4 8.0 0.00 0.00 0.00 88 1015.9
20210224145301 18 189 3.2 17.7 0.00 0.00 0.00 88 1015.9
20210224145207 18 189 3.2 17.7 0.00 0.00 0.00 88 1015.9
20210224145059 18 189 3.2 17.7 0.00 0.00 0.00 88 1015.9
20210224144912 18 189 3.2 17.7 0.00 0.00 0.00 88 1015.9
20210224144711 18 224 4.8 17.7 0.00 0.00 0.00 88 1015.9
20210224144612 18 224 4.8 17.7 0.00 0.00 0.00 88 1016.0
20210224144521 18 224 4.8 17.7 0.00 0.00 0.00 88 1015.8
20210224144411 18 207 4.8 17.7 0.00 0.00 0.00 88 1015.9
20210224144312 18 196 6.4 17.7 0.00 0.00 0.00 88 1015.9
20210224144209 18 188 6.4 17.7 0.00 0.00 0.00 88 1015.9
20210224144110 18 197 4.8 14.5 0.00 0.00 0.00 88 1015.9
20210224144019 18 154 4.8 14.5 0.00 0.00 0.00 89 1015.7
20210224143912 18 144 3.2 14.5 0.00 0.00 0.00 89 1015.8
20210224143810 18 169 3.2 14.5 0.00 0.00 0.00 89 1015.8
20210224143710 18 200 3.2 14.5 0.00 0.00 0.00 89 1015.8
20210224143613 18 159 3.2 14.5 0.00 0.00 0.00 89 1015.8
20210224143520 18 186 4.8 14.5 0.00 0.00 0.00 89 1015.8
20210224143410 18 202 6.4 14.5 0.00 0.00 0.00 89 1015.7
20210224143312 18 166 8.0 14.5 0.00 0.00 0.00 89 1015.7
20210224143210 18 183 8.0 11.3 0.00 0.00 0.00 89 1015.7
20210224143110 18 180 6.4 11.3 0.00 0.00 0.00 89 1015.6
20210224143025 18 169 6.4 11.3 0.00 0.00 0.00 89 1015.6
20210224142915 18 97 4.8 11.3 0.00 0.00 0.00 89 1015.7
20210224142909 17 179 4.8 11.3 0.00 0.00 0.00 89 1015.7
20210224142904 17 186 4.8 11.3 0.00 0.00 0.00 89 1015.7
20210224142806 17 178 6.4 11.3 0.00 0.00 0.00 90 1015.7
20210224142620 17 251 4.8 9.7 0.00 0.00 0.00 90 1015.7
20210224142425 17 185 4.8 9.7 0.00 0.00 0.00 90 1015.7
20210224142313 17 182 4.8 9.7 0.00 0.00 0.00 90 1015.7
20210224142212 17 197 4.8 9.7 0.00 0.00 0.00 90 1015.7
20210224142109 17 140 6.4 9.7 0.00 0.00 0.00 90 1015.6
20210224142021 17 175 6.4 9.7 0.00 0.00 0.00 90 1015.6
20210224141906 17 180 6.4 9.7 0.00 0.00 0.00 90 1015.6
20210224141801 17 195 3.2 9.7 0.00 0.00 0.00 90 1015.6
20210224141700 17 195 1.6 6.4 0.00 0.00 0.00 90 1015.6
20210224141559 17 140 4.8 6.4 0.00 0.00 0.00 90 1015.6
20210224141500 17 157 4.8 6.4 0.00 0.00 0.00 90 1015.6
20210224141356 17 158 3.2 6.4 0.00 0.00 0.00 90 1015.6
20210224141256 17 124 3.2 6.4 0.00 0.00 0.00 90 1015.5
20210224141153 17 183 3.2 6.4 0.00 0.00 0.00 90 1015.5
20210224141052 17 166 3.2 6.4 0.00 0.00 0.00 90 1015.5
20210224140952 17 152 1.6 6.4 0.00 0.00 0.00 90 1015.5
20210224140851 17 138 1.6 6.4 0.00 0.00 0.00 90 1015.5
20210224140752 17 121 3.2 6.4 0.00 0.00 0.00 90 1015.6
20210224140652 17 99 3.2 6.4 0.00 0.00 0.00 91 1015.5
20210224140559 17 185 1.6 6.4 0.00 0.00 0.00 91 1015.5
20210224140453 17 166 1.6 6.4 0.00 0.00 0.00 91 1015.5
20210224140353 17 164 3.2 6.4 0.00 0.00 0.00 91 1015.5
20210224140252 17 161 3.2 6.4 0.00 0.00 0.00 91 1015.5
20210224140152 17 214 3.2 6.4 0.00 0.00 0.00 90 1015.5
20210224140052 17 138 4.8 6.4 0.00 0.00 0.00 90 1015.5
20210224135951 17 152 3.2 6.4 0.00 0.00 0.00 91 1015.4
20210224135853 17 165 3.2 6.4 0.00 0.00 0.00 91 1015.5
20210224135753 17 165 3.2 6.4 0.00 0.00 0.00 91 1015.5
20210224135651 17 173 3.2 6.4 0.00 0.00 0.00 91 1015.5
20210224135555 17 166 1.6 6.4 0.00 0.00 0.00 91 1015.5
20210224135450 17 158 3.2 6.4 0.00 0.00 0.00 91 1015.5
20210224135350 17 165 3.2 6.4 0.00 0.00 0.00 91 1015.5
20210224135257 17 169 1.6 6.4 0.00 0.00 0.00 91 1015.4
20210224135152 16 165 1.6 6.4 0.00 0.00 0.00 91 1015.5
20210224135052 16 165 1.6 6.4 0.00 0.00 0.00 91 1015.5
20210224134952 16 175 1.6 6.4 0.00 0.00 0.00 91 1015.5
20210224134852 16 157 1.6 6.4 0.00 0.00 0.00 91 1015.5
20210224134750 16 103 3.2 6.4 0.00 0.00 0.00 91 1015.5
20210224134650 16 161 3.2 6.4 0.00 0.00 0.00 91 1015.5
20210224134553 16 103 3.2 8.0 0.00 0.00 0.00 91 1015.4
20210224134454 16 161 3.2 8.0 0.00 0.00 0.00 91 1015.3
20210224134353 16 164 3.2 8.0 0.00 0.00 0.00 91 1015.4
20210224134250 16 166 3.2 8.0 0.00 0.00 0.00 91 1015.4
20210224134150 16 159 1.6 8.0 0.00 0.00 0.00 91 1015.4
20210224134051 16 124 1.6 8.0 0.00 0.00 0.00 91 1015.5
20210224133951 16 169 1.6 8.0 0.00 0.00 0.00 91 1015.3
20210224133853 16 145 3.2 8.0 0.00 0.00 0.00 91 1015.4
20210224133753 16 141 3.2 8.0 0.00 0.00 0.00 91 1015.3
20210224133653 16 182 3.2 8.0 0.00 0.00 0.00 91 1015.3
20210224133556 16 144 3.2 6.4 0.00 0.00 0.00 91 1015.4
20210224133457 16 168 3.2 6.4 0.00 0.00 0.00 91 1015.4
20210224133351 16 159 1.6 6.4 0.00 0.00 0.00 91 1015.4
20210224133252 16 196 1.6 6.4 0.00 0.00 0.00 91 1015.4
20210224133155 16 233 1.6 6.4 0.00 0.00 0.00 91 1015.3
20210224133110 16 130 0.0 6.4 0.00 0.00 0.00 91 1015.4
20210224133039 16 165 0.0 6.4 0.00 0.00 0.00 91 1015.4
20210224133026 16 164 3.2 6.4 0.00 0.00 0.00 91 1015.3
20210224132950 16 186 3.2 6.4 0.00 0.00 0.00 91 1015.3
20210224132935 16 169 1.6 4.8 0.00 0.00 0.00 91 1015.3
20210224132751 16 171 1.6 4.8 0.00 0.00 0.00 91 1015.3
20210224132600 16 164 1.6 4.8 0.00 0.00 0.00 91 1015.3
20210224132438 16 159 1.6 4.8 0.00 0.00 0.00 91 1015.3
20210224132252 16 135 3.2 4.8 0.00 0.00 0.00 91 1015.2
20210224132156 16 133 3.2 4.8 0.00 0.00 0.00 91 1015.3
20210224132052 16 128 3.2 4.8 0.00 0.00 0.00 91 1015.3
20210224131953 16 149 1.6 4.8 0.00 0.00 0.00 91 1015.3
20210224131851 16 161 1.6 4.8 0.00 0.00 0.00 91 1015.3
20210224131750 16 147 1.6 4.8 0.00 0.00 0.00 91 1015.2
20210224131650 16 134 3.2 6.4 0.00 0.00 0.00 91 1015.2
20210224131552 16 141 3.2 6.4 0.00 0.00 0.00 91 1015.2
20210224131449 16 176 1.6 6.4 0.00 0.00 0.00 91 1015.2
20210224131351 16 144 0.0 6.4 0.00 0.00 0.00 91 1015.2
20210224131251 16 157 1.6 6.4 0.00 0.00 0.00 91 1015.2
20210224131151 16 179 1.6 6.4 0.00 0.00 0.00 91 1015.2
20210224131051 16 169 1.6 6.4 0.00 0.00 0.00 91 1015.1
20210224130951 16 161 1.6 6.4 0.00 0.00 0.00 91 1015.1
20210224130850 16 171 3.2 6.4 0.00 0.00 0.00 91 1015.1
20210224130750 16 168 3.2 6.4 0.00 0.00 0.00 91 1015.1
20210224130655 16 171 1.6 6.4 0.00 0.00 0.00 91 1015.1
20210224130613 16 152 3.2 6.4 0.00 0.00 0.00 91 1015.1
20210224130500 16 166 3.2 6.4 0.00 0.00 0.00 91 1015.2
20210224130358 16 157 3.2 6.4 0.00 0.00 0.00 91 1015.2
20210224130250 16 182 3.2 6.4 0.00 0.00 0.00 91 1015.2
20210224130151 16 155 3.2 6.4 0.00 0.00 0.00 91 1015.1
20210224130106 16 166 3.2 8.0 0.00 0.00 0.00 91 1015.1
20210224125952 16 165 3.2 8.0 0.00 0.00 0.00 91 1015.2
20210224125854 16 154 3.2 8.0 0.00 0.00 0.00 91 1015.1
20210224125751 16 127 1.6 8.0 0.00 0.00 0.00 91 1015.1
20210224125654 16 124 1.6 8.0 0.00 0.00 0.00 91 1015.1
20210224125629 16 178 3.2 8.0 0.00 0.00 0.00 91 1015.0
20210224125602 16 182 1.6 8.0 0.00 0.00 0.00 91 1015.0
20210224125538 15 172 3.2 8.0 0.00 0.00 0.00 91 1015.1
20210224125455 16 152 3.2 8.0 0.00 0.00 0.00 91 1015.1
20210224125426 16 145 3.2 8.0 0.00 0.00 0.00 91 1015.0
20210224125359 16 137 3.2 6.4 0.00 0.00 0.00 91 1015.1
20210224125205 16 135 3.2 6.4 0.00 0.00 0.00 91 1015.0
20210224125050 16 92 3.2 6.4 0.00 0.00 0.00 91 1015.0
20210224124821 16 157 3.2 6.4 0.00 0.00 0.00 91 1015.1
20210224124650 16 100 3.2 6.4 0.00 0.00 0.00 91 1015.0
20210224124606 16 158 1.6 6.4 0.00 0.00 0.00 91 1015.1
20210224124449 15 151 3.2 6.4 0.00 0.00 0.00 91 1015.1
20210224124350 15 162 3.2 6.4 0.00 0.00 0.00 91 1015.0
20210224124251 15 137 1.6 4.8 0.00 0.00 0.00 91 1015.1
20210224124154 15 134 1.6 4.8 0.00 0.00 0.00 91 1015.0
20210224124055 15 109 1.6 4.8 0.00 0.00 0.00 91 1015.0
20210224123949 15 109 1.6 4.8 0.00 0.00 0.00 91 1015.0
20210224123854 15 109 1.6 4.8 0.00 0.00 0.00 91 1015.0
20210224123754 15 109 1.6 4.8 0.00 0.00 0.00 91 1015.0
20210224123650 15 114 3.2 4.8 0.00 0.00 0.00 91 1015.0
20210224123553 15 107 3.2 4.8 0.00 0.00 0.00 91 1014.9
20210224123452 15 120 1.6 4.8 0.00 0.00 0.00 91 1015.1
20210224123354 15 116 1.6 4.8 0.00 0.00 0.00 91 1015.1
20210224123256 15 116 1.6 4.8 0.00 0.00 0.00 91 1015.0
20210224123150 15 120 1.6 4.8 0.00 0.00 0.00 91 1015.0
20210224123106 15 131 1.6 4.8 0.00 0.00 0.00 91 1015.0
20210224123037 15 131 3.2 4.8 0.00 0.00 0.00 91 1014.9
20210224123024 15 109 3.2 4.8 0.00 0.00 0.00 91 1014.9
20210224122948 15 123 3.2 4.8 0.00 0.00 0.00 91 1014.9
20210224122925 15 117 3.2 4.8 0.00 0.00 0.00 91 1014.9
20210224122817 15 103 1.6 4.8 0.00 0.00 0.00 91 1015.0
20210224122552 15 90 1.6 4.8 0.00 0.00 0.00 91 1015.0
20210224122404 15 113 1.6 6.4 0.00 0.00 0.00 91 1015.0
20210224122249 15 86 1.6 6.4 0.00 0.00 0.00 91 1014.9
20210224122151 15 166 1.6 6.4 0.00 0.00 0.00 91 1015.0
20210224122048 15 138 3.2 6.4 0.00 0.00 0.00 91 1015.0
20210224121950 15 164 3.2 6.4 0.00 0.00 0.00 91 1014.9
20210224121850 15 131 3.2 6.4 0.00 0.00 0.00 90 1014.9
20210224121750 15 114 3.2 6.4 0.00 0.00 0.00 90 1014.9
20210224121650 15 137 3.2 6.4 0.00 0.00 0.00 90 1014.9
20210224121550 15 134 3.2 6.4 0.00 0.00 0.00 90 1015.0
20210224121450 15 124 3.2 6.4 0.00 0.00 0.00 90 1015.0
20210224121349 15 124 1.6 3.2 0.00 0.00 0.00 90 1015.0
20210224121249 15 141 1.6 3.2 0.00 0.00 0.00 90 1014.9
20210224121150 15 138 1.6 3.2 0.00 0.00 0.00 91 1015.0
20210224121051 15 138 3.2 3.2 0.00 0.00 0.00 90 1014.9
20210224120953 15 144 1.6 3.2 0.00 0.00 0.00 90 1014.9
20210224120849 15 144 1.6 3.2 0.00 0.00 0.00 90 1014.9
20210224120750 15 144 1.6 3.2 0.00 0.00 0.00 90 1014.9
20210224120649 15 144 1.6 3.2 0.00 0.00 0.00 90 1014.9
20210224120550 15 144 1.6 3.2 0.00 0.00 0.00 90 1014.9
20210224120451 15 144 1.6 3.2 0.00 0.00 0.00 90 1014.9
20210224120352 15 144 1.6 3.2 0.00 0.00 0.00 90 1014.8
20210224120250 15 144 1.6 3.2 0.00 0.00 0.00 90 1014.9
20210224120158 15 144 1.6 3.2 0.00 0.00 0.00 90 1014.8
20210224120050 15 144 1.6 3.2 0.00 0.00 0.00 90 1014.8
20210224115948 15 144 1.6 3.2 0.00 0.00 0.00 90 1014.8
20210224115853 15 137 1.6 3.2 0.00 0.00 0.00 90 1014.8
20210224115753 15 133 1.6 3.2 0.00 0.00 0.00 90 1014.8
20210224115656 15 137 0.0 3.2 0.00 0.00 0.00 90 1014.8
20210224115550 15 137 1.6 3.2 0.00 0.00 0.00 90 1014.8
20210224115448 15 137 1.6 4.8 0.00 0.00 0.00 90 1014.8
20210224115421 15 137 1.6 4.8 0.00 0.00 0.00 90 1014.8
20210224115359 15 116 1.6 4.8 0.00 0.00 0.00 90 1014.8
20210224115346 15 116 3.2 4.8 0.00 0.00 0.00 90 1014.8
20210224115330 15 116 3.2 4.8 0.00 0.00 0.00 90 1014.7
20210224115210 15 116 3.2 6.4 0.00 0.00 0.00 90 1014.7
20210224115028 15 116 3.2 6.4 0.00 0.00 0.00 90 1014.8
20210224114818 15 116 3.2 6.4 0.00 0.00 0.00 90 1014.8
20210224114649 15 118 3.2 6.4 0.00 0.00 0.00 90 1014.7
20210224114548 15 118 3.2 6.4 0.00 0.00 0.00 90 1014.7
20210224114449 15 118 3.2 6.4 0.00 0.00 0.00 90 1014.6
20210224114349 15 125 3.2 6.4 0.00 0.00 0.00 90 1014.7
20210224114252 15 125 3.2 6.4 0.00 0.00 0.00 90 1014.6
20210224114152 15 120 3.2 6.4 0.00 0.00 0.00 90 1014.7
20210224114048 15 111 3.2 6.4 0.00 0.00 0.00 90 1014.7
20210224113950 15 117 3.2 4.8 0.00 0.00 0.00 90 1014.7
20210224113849 15 114 3.2 4.8 0.00 0.00 0.00 90 1014.7
20210224113748 15 114 3.2 4.8 0.00 0.00 0.00 90 1014.7
20210224113649 15 114 3.2 4.8 0.00 0.00 0.00 90 1014.6
20210224113548 15 114 3.2 4.8 0.00 0.00 0.00 90 1014.7
20210224113448 15 118 3.2 4.8 0.00 0.00 0.00 90 1014.7
20210224113348 15 118 3.2 4.8 0.00 0.00 0.00 90 1014.7
20210224113247 15 113 3.2 4.8 0.00 0.00 0.00 90 1014.6
20210224113149 15 123 3.2 4.8 0.00 0.00 0.00 90 1014.6
20210224113049 15 123 3.2 4.8 0.00 0.00 0.00 90 1014.6
20210224112950 15 123 3.2 4.8 0.00 0.00 0.00 90 1014.6
20210224112854 15 123 3.2 4.8 0.00 0.00 0.00 90 1014.6
20210224112814 15 123 3.2 4.8 0.00 0.00 0.00 90 1014.6
20210224112715 15 123 3.2 4.8 0.00 0.00 0.00 90 1014.5
20210224112612 15 123 3.2 4.8 0.00 0.00 0.00 90 1014.6
20210224112449 15 123 3.2 4.8 0.00 0.00 0.00 90 1014.5
20210224112353 15 117 3.2 4.8 0.00 0.00 0.00 90 1014.5
20210224112249 15 123 3.2 4.8 0.00 0.00 0.00 90 1014.5
20210224112148 15 125 3.2 4.8 0.00 0.00 0.00 90 1014.4
20210224112047 15 128 3.2 4.8 0.00 0.00 0.00 90 1014.5
20210224111948 15 128 3.2 4.8 0.00 0.00 0.00 90 1014.4
20210224111847 15 128 1.6 4.8 0.00 0.00 0.00 90 1014.4
20210224111751 15 128 1.6 4.8 0.00 0.00 0.00 90 1014.3
20210224111650 15 128 1.6 4.8 0.00 0.00 0.00 90 1014.3
20210224111549 15 128 1.6 4.8 0.00 0.00 0.00 90 1014.3
20210224111449 15 128 1.6 4.8 0.00 0.00 0.00 90 1014.3
20210224111349 15 128 3.2 4.8 0.00 0.00 0.00 90 1014.3
20210224111250 15 128 3.2 4.8 0.00 0.00 0.00 90 1014.3
20210224111148 15 128 3.2 4.8 0.00 0.00 0.00 90 1014.3
20210224111052 15 128 3.2 4.8 0.00 0.00 0.00 90 1014.3
20210224110948 15 128 3.2 4.8 0.00 0.00 0.00 90 1014.3
20210224110847 15 128 3.2 4.8 0.00 0.00 0.00 90 1014.2
20210224110748 15 128 3.2 4.8 0.00 0.00 0.00 90 1014.2
20210224110649 15 128 3.2 4.8 0.00 0.00 0.00 90 1014.2
20210224110549 15 144 1.6 4.8 0.00 0.00 0.00 90 1014.3
20210224110448 15 144 1.6 4.8 0.00 0.00 0.00 90 1014.2
20210224110347 15 144 1.6 4.8 0.00 0.00 0.00 90 1014.2
20210224110257 15 138 3.2 4.8 0.00 0.00 0.00 90 1014.2
20210224110148 15 141 3.2 4.8 0.00 0.00 0.00 90 1014.2
20210224110052 15 161 3.2 4.8 0.00 0.00 0.00 90 1014.1
20210224105954 15 161 1.6 4.8 0.00 0.00 0.00 90 1014.1
20210224105848 15 161 1.6 4.8 0.00 0.00 0.00 90 1014.1
20210224105750 15 161 1.6 4.8 0.00 0.00 0.00 90 1014.1
20210224105647 15 161 1.6 4.8 0.00 0.00 0.00 90 1014.1
20210224105548 15 161 3.2 4.8 0.00 0.00 0.00 90 1014.0
20210224105447 15 149 3.2 4.8 0.00 0.00 0.00 89 1014.0
20210224105346 15 148 1.6 4.8 0.00 0.00 0.00 89 1014.0
20210224105326 15 149 3.2 4.8 0.00 0.00 0.00 89 1013.9
20210224105315 15 124 3.2 6.4 0.00 0.00 0.00 89 1014.0
20210224105151 15 124 3.2 6.4 0.00 0.00 0.00 89 1013.9
20210224105012 15 118 3.2 6.4 0.00 0.00 0.00 89 1013.9
20210224104900 15 127 3.2 6.4 0.00 0.00 0.00 89 1013.9
20210224104755 15 134 3.2 6.4 0.00 0.00 0.00 89 1014.0
20210224104648 15 134 3.2 6.4 0.00 0.00 0.00 89 1014.0
20210224104547 15 131 3.2 6.4 0.00 0.00 0.00 89 1013.9
20210224104449 15 140 3.2 6.4 0.00 0.00 0.00 89 1014.0
20210224104348 15 140 3.2 6.4 0.00 0.00 0.00 90 1014.0
20210224104247 15 116 4.8 6.4 0.00 0.00 0.00 89 1013.9
20210224104148 15 123 3.2 6.4 0.00 0.00 0.00 89 1013.9
20210224104047 15 114 3.2 4.8 0.00 0.00 0.00 89 1013.9
20210224103947 15 114 3.2 4.8 0.00 0.00 0.00 89 1013.9
20210224103846 15 124 3.2 6.4 0.00 0.00 0.00 89 1013.9
20210224103748 15 134 1.6 6.4 0.00 0.00 0.00 89 1013.9
20210224103646 15 152 1.6 6.4 0.00 0.00 0.00 89 1013.9
20210224103550 15 141 1.6 6.4 0.00 0.00 0.00 89 1013.9
20210224103447 15 141 1.6 6.4 0.00 0.00 0.00 89 1014.0
20210224103347 15 124 1.6 6.4 0.00 0.00 0.00 89 1013.9
20210224103247 15 124 3.2 6.4 0.00 0.00 0.00 89 1013.9
20210224103147 15 121 3.2 6.4 0.00 0.00 0.00 89 1014.0
20210224103048 15 124 4.8 6.4 0.00 0.00 0.00 89 1013.9
20210224102948 15 138 3.2 6.4 0.00 0.00 0.00 89 1014.0
20210224102850 15 125 3.2 6.4 0.00 0.00 0.00 89 1013.9
20210224102835 15 137 3.2 6.4 0.00 0.00 0.00 89 1013.9
20210224102803 15 133 4.8 6.4 0.00 0.00 0.00 89 1013.9
20210224102731 15 120 3.2 6.4 0.00 0.00 0.00 89 1014.0
20210224102545 15 121 3.2 6.4 0.00 0.00 0.00 89 1013.9
20210224102426 15 118 4.8 6.4 0.00 0.00 0.00 89 1013.9
20210224102251 15 116 3.2 6.4 0.00 0.00 0.00 89 1013.9
20210224102145 15 113 3.2 6.4 0.00 0.00 0.00 89 1014.0
20210224102047 15 117 3.2 6.4 0.00 0.00 0.00 89 1014.0
20210224101949 15 114 3.2 6.4 0.00 0.00 0.00 89 1014.0
20210224101851 15 113 3.2 6.4 0.00 0.00 0.00 89 1014.0
20210224101746 15 114 3.2 6.4 0.00 0.00 0.00 89 1014.0
20210224101647 15 107 3.2 6.4 0.00 0.00 0.00 89 1014.0
20210224101555 15 134 3.2 6.4 0.00 0.00 0.00 89 1013.9
20210224101446 15 137 3.2 4.8 0.00 0.00 0.00 89 1013.9
20210224101348 15 137 1.6 4.8 0.00 0.00 0.00 89 1013.9
20210224101247 15 137 1.6 6.4 0.00 0.00 0.00 89 1014.0
20210224101146 15 137 1.6 6.4 0.00 0.00 0.00 89 1014.0
20210224101046 15 137 3.2 6.4 0.00 0.00 0.00 89 1014.0
20210224100948 15 148 3.2 6.4 0.00 0.00 0.00 88 1014.0
20210224100846 15 140 3.2 6.4 0.00 0.00 0.00 88 1014.0
20210224100746 15 149 3.2 6.4 0.00 0.00 0.00 88 1014.0
20210224100648 15 147 3.2 6.4 0.00 0.00 0.00 88 1013.9
20210224100551 15 164 3.2 6.4 0.00 0.00 0.00 88 1013.9
20210224100449 15 141 3.2 6.4 0.00 0.00 0.00 88 1013.9
20210224100348 15 154 3.2 6.4 0.00 0.00 0.00 88 1013.9
20210224100247 15 144 3.2 6.4 0.00 0.00 0.00 88 1013.9
20210224100145 15 145 3.2 6.4 0.00 0.00 0.00 88 1013.9
20210224100110 15 144 3.2 6.4 0.00 0.00 0.00 88 1014.0
20210224095948 15 197 3.2 6.4 0.00 0.00 0.00 88 1014.0
20210224095847 15 190 3.2 6.4 0.00 0.00 0.00 88 1014.1
20210224095746 15 162 1.6 6.4 0.00 0.00 0.00 88 1014.0
20210224095646 15 155 0.0 6.4 0.00 0.00 0.00 88 1014.0
20210224095546 15 169 0.0 6.4 0.00 0.00 0.00 88 1014.1
20210224095445 15 155 1.6 6.4 0.00 0.00 0.00 88 1014.0
20210224095345 15 155 3.2 6.4 0.00 0.00 0.00 88 1014.0
20210224095325 15 135 3.2 6.4 0.00 0.00 0.00 88 1014.0
20210224095257 15 120 1.6 6.4 0.00 0.00 0.00 88 1014.1
20210224095224 15 109 1.6 9.7 0.00 0.00 0.00 88 1014.0
20210224095121 15 151 3.2 9.7 0.00 0.00 0.00 88 1013.9
20210224094944 15 157 3.2 9.7 0.00 0.00 0.00 88 1014.0
20210224094811 15 142 3.2 9.7 0.00 0.00 0.00 88 1014.0
20210224094646 15 89 4.8 9.7 0.00 0.00 0.00 88 1014.0
20210224094547 15 89 4.8 9.7 0.00 0.00 0.00 88 1014.0
20210224094448 15 89 4.8 9.7 0.00 0.00 0.00 88 1014.0
20210224094347 15 89 4.8 9.7 0.00 0.00 0.00 88 1014.0
20210224094247 15 80 4.8 9.7 0.00 0.00 0.00 88 1014.0
20210224094147 15 124 3.2 9.7 0.00 0.00 0.00 88 1014.0
20210224094046 15 117 3.2 8.0 0.00 0.00 0.00 88 1014.0
20210224093947 15 131 3.2 9.7 0.00 0.00 0.00 88 1014.1
20210224093851 15 121 1.6 9.7 0.00 0.00 0.00 88 1014.1
20210224093745 15 162 1.6 9.7 0.00 0.00 0.00 88 1014.0
20210224093646 15 137 3.2 9.7 0.00 0.00 0.00 88 1014.1
20210224093545 15 140 3.2 9.7 0.00 0.00 0.00 88 1014.1
20210224093446 15 161 3.2 9.7 0.00 0.00 0.00 88 1014.1
20210224093347 15 164 3.2 9.7 0.00 0.00 0.00 88 1014.1
20210224093246 15 128 4.8 9.7 0.00 0.00 0.00 88 1014.1
20210224093150 15 183 4.8 9.7 0.00 0.00 0.00 88 1014.1
20210224093046 15 166 3.2 9.7 0.00 0.00 0.00 88 1014.2
20210224092945 15 102 3.2 8.0 0.00 0.00 0.00 88 1014.1
20210224092850 15 193 3.2 8.0 0.00 0.00 0.00 88 1014.1
20210224092746 15 155 3.2 8.0 0.00 0.00 0.00 88 1014.2
20210224092710 15 192 3.2 8.0 0.00 0.00 0.00 89 1014.2
20210224092624 15 162 3.2 8.0 0.00 0.00 0.00 89 1014.1
20210224092532 15 168 4.8 8.0 0.00 0.00 0.00 89 1014.2
20210224092408 15 168 4.8 8.0 0.00 0.00 0.00 89 1014.2
20210224092248 15 179 4.8 8.0 0.00 0.00 0.00 89 1014.2
20210224092147 15 157 3.2 8.0 0.00 0.00 0.00 89 1014.2
20210224092048 15 204 3.2 6.4 0.00 0.00 0.00 89 1014.2
20210224091945 15 164 3.2 6.4 0.00 0.00 0.00 89 1014.2
20210224091845 15 176 3.2 6.4 0.00 0.00 0.00 89 1014.2
20210224091749 15 165 3.2 6.4 0.00 0.00 0.00 89 1014.2
20210224091648 15 113 3.2 6.4 0.00 0.00 0.00 89 1014.3
20210224091553 14 133 3.2 6.4 0.00 0.00 0.00 89 1014.3
20210224091449 14 151 3.2 6.4 0.00 0.00 0.00 88 1014.3
20210224091346 14 149 1.6 6.4 0.00 0.00 0.00 88 1014.3
20210224091244 14 161 3.2 8.0 0.00 0.00 0.00 88 1014.2
20210224091145 14 154 3.2 8.0 0.00 0.00 0.00 88 1014.3
20210224091049 14 171 3.2 8.0 0.00 0.00 0.00 88 1014.2
20210224090946 14 144 3.2 8.0 0.00 0.00 0.00 88 1014.3
20210224090844 15 147 1.6 8.0 0.00 0.00 0.00 88 1014.3
20210224090746 15 148 1.6 8.0 0.00 0.00 0.00 88 1014.1
20210224090647 15 138 3.2 8.0 0.00 0.00 0.00 88 1014.2
20210224090545 15 151 3.2 8.0 0.00 0.00 0.00 88 1014.2
20210224090445 15 133 3.2 8.0 0.00 0.00 0.00 88 1014.3
20210224090344 15 137 4.8 8.0 0.00 0.00 0.00 88 1014.2
20210224090244 15 131 3.2 6.4 0.00 0.00 0.00 88 1014.2
20210224090147 15 165 3.2 6.4 0.00 0.00 0.00 88 1014.2
20210224090047 15 155 1.6 6.4 0.00 0.00 0.00 88 1014.2
20210224085945 15 134 1.6 6.4 0.00 0.00 0.00 88 1014.2
20210224085845 14 144 3.2 6.4 0.00 0.00 0.00 88 1014.3
20210224085746 14 144 3.2 6.4 0.00 0.00 0.00 88 1014.3
20210224085645 15 166 3.2 8.0 0.00 0.00 0.00 88 1014.2
20210224085544 15 145 1.6 8.0 0.00 0.00 0.00 88 1014.2
20210224085445 15 154 3.2 8.0 0.00 0.00 0.00 88 1014.2
20210224085345 15 144 3.2 8.0 0.00 0.00 0.00 88 1014.2
20210224085330 15 140 1.6 8.0 0.00 0.00 0.00 88 1014.2
20210224085318 15 173 3.2 8.0 0.00 0.00 0.00 88 1014.2
20210224085255 15 195 3.2 8.0 0.00 0.00 0.00 88 1014.2
20210224085120 15 141 3.2 8.0 0.00 0.00 0.00 88 1014.2
20210224085010 15 166 4.8 8.0 0.00 0.00 0.00 88 1014.2
20210224084817 15 159 3.2 8.0 0.00 0.00 0.00 88 1014.2
20210224084651 15 142 3.2 8.0 0.00 0.00 0.00 88 1014.2
20210224084626 15 189 3.2 8.0 0.00 0.00 0.00 88 1014.2
20210224084448 15 127 4.8 8.0 0.00 0.00 0.00 88 1014.2
20210224084346 15 149 4.8 8.0 0.00 0.00 0.00 88 1014.1
20210224084245 15 125 4.8 8.0 0.00 0.00 0.00 87 1014.2
20210224084146 15 138 3.2 9.7 0.00 0.00 0.00 87 1014.2
20210224084044 15 130 3.2 9.7 0.00 0.00 0.00 87 1014.2
20210224083945 15 180 3.2 9.7 0.00 0.00 0.00 87 1014.2
20210224083849 15 166 4.8 9.7 0.00 0.00 0.00 87 1014.2
20210224083744 15 155 4.8 9.7 0.00 0.00 0.00 87 1014.3
20210224083646 15 135 4.8 9.7 0.00 0.00 0.00 87 1014.3
20210224083544 15 133 4.8 9.7 0.00 0.00 0.00 87 1014.3
20210224083447 15 171 4.8 9.7 0.00 0.00 0.00 87 1014.3
20210224083346 15 147 6.4 9.7 0.00 0.00 0.00 87 1014.2
20210224083246 15 137 6.4 11.3 0.00 0.00 0.00 87 1014.3
20210224083147 15 127 3.2 11.3 0.00 0.00 0.00 87 1014.3
20210224083044 15 172 4.8 11.3 0.00 0.00 0.00 87 1014.3
20210224082945 15 175 4.8 11.3 0.00 0.00 0.00 87 1014.3
20210224082858 15 171 3.2 11.3 0.00 0.00 0.00 87 1014.3
20210224082847 15 159 3.2 11.3 0.00 0.00 0.00 87 1014.3
20210224082742 15 137 3.2 11.3 0.00 0.00 0.00 87 1014.3
20210224082634 15 113 4.8 11.3 0.00 0.00 0.00 87 1014.4
20210224082451 15 189 6.4 11.3 0.00 0.00 0.00 87 1014.3
20210224082348 15 125 4.8 11.3 0.00 0.00 0.00 87 1014.3
20210224082245 15 217 3.2 8.0 0.00 0.00 0.00 87 1014.4
20210224082143 15 157 3.2 14.5 0.00 0.00 0.00 87 1014.4
20210224082043 15 197 4.8 14.5 0.00 0.00 0.00 87 1014.4
20210224081945 15 180 4.8 14.5 0.00 0.00 0.00 87 1014.4
20210224081845 15 149 4.8 14.5 0.00 0.00 0.00 86 1014.4
20210224081746 15 148 4.8 14.5 0.00 0.00 0.00 86 1014.4
20210224081644 15 130 3.2 14.5 0.00 0.00 0.00 86 1014.4
20210224081546 15 286 3.2 14.5 0.00 0.00 0.00 86 1014.4
20210224081444 15 148 4.8 14.5 0.00 0.00 0.00 86 1014.5
20210224081343 15 121 6.4 14.5 0.00 0.00 0.00 86 1014.4
20210224081246 15 157 6.4 14.5 0.00 0.00 0.00 86 1014.5
20210224081143 15 127 4.8 11.3 0.00 0.00 0.00 86 1014.5
20210224081043 15 176 3.2 11.3 0.00 0.00 0.00 86 1014.5
20210224080943 15 116 1.6 11.3 0.00 0.00 0.00 86 1014.5
20210224080845 15 164 4.8 11.3 0.00 0.00 0.00 86 1014.5
20210224080743 15 193 6.4 11.3 0.00 0.00 0.00 86 1014.5
20210224080644 15 114 4.8 11.3 0.00 0.00 0.00 86 1014.5
20210224080543 15 135 4.8 11.3 0.00 0.00 0.00 86 1014.6
20210224080444 15 248 6.4 14.5 0.00 0.00 0.00 86 1014.7
20210224080344 15 148 4.8 14.5 0.00 0.00 0.00 86 1014.7
20210224080244 15 159 4.8 14.5 0.00 0.00 0.00 86 1014.6
20210224080143 15 155 4.8 14.5 0.00 0.00 0.00 86 1014.7
20210224080044 15 83 4.8 14.5 0.00 0.00 0.00 86 1014.6
20210224075942 15 151 4.8 14.5 0.00 0.00 0.00 86 1014.7
20210224075845 15 145 4.8 14.5 0.00 0.00 0.00 86 1014.6
20210224075744 15 155 4.8 14.5 0.00 0.00 0.00 85 1014.6
20210224075646 15 161 6.4 14.5 0.00 0.00 0.00 86 1014.7
20210224075546 15 151 6.4 14.5 0.00 0.00 0.00 85 1014.8
20210224075446 15 148 4.8 9.7 0.00 0.00 0.00 85 1014.7
20210224075428 15 131 3.2 8.0 0.00 0.00 0.00 85 1014.7
20210224075420 15 171 4.8 11.3 0.00 0.00 0.00 85 1014.7
20210224075405 15 149 4.8 11.3 0.00 0.00 0.00 85 1014.7
20210224075326 15 199 4.8 11.3 0.00 0.00 0.00 85 1014.7
20210224075112 15 196 3.2 11.3 0.00 0.00 0.00 85 1014.7
20210224074928 15 202 3.2 11.3 0.00 0.00 0.00 85 1014.7
20210224074757 15 158 3.2 11.3 0.00 0.00 0.00 85 1014.7
20210224074646 15 62 3.2 11.3 0.00 0.00 0.00 85 1014.7
20210224074547 15 166 4.8 16.1 0.00 0.00 0.00 85 1014.7
20210224074443 15 175 6.4 16.1 0.00 0.00 0.00 85 1014.7
20210224074351 15 172 6.4 16.1 0.00 0.00 0.00 85 1014.7
20210224074243 15 166 6.4 16.1 0.00 0.00 0.00 85 1014.7
20210224074143 15 228 4.8 16.1 0.00 0.00 0.00 85 1014.8
20210224074047 15 233 4.8 16.1 0.00 0.00 0.00 85 1014.7
20210224073944 15 147 4.8 16.1 0.00 0.00 0.00 85 1014.8
20210224073842 15 183 4.8 16.1 0.00 0.00 0.00 85 1014.8
20210224073745 15 148 6.4 16.1 0.00 0.00 0.00 85 1014.8
20210224073643 15 169 6.4 16.1 0.00 0.00 0.00 85 1014.8
20210224073543 15 214 4.8 14.5 0.00 0.00 0.00 85 1014.8
20210224073443 15 94 6.4 14.5 0.00 0.00 0.00 84 1014.8
20210224073346 15 159 6.4 14.5 0.00 0.00 0.00 84 1014.7
20210224073242 15 221 6.4 14.5 0.00 0.00 0.00 84 1014.8
20210224073148 15 259 6.4 14.5 0.00 0.00 0.00 84 1014.8
20210224073044 15 159 6.4 14.5 0.00 0.00 0.00 84 1014.9
20210224072943 15 190 4.8 11.3 0.00 0.00 0.00 84 1014.8
20210224072858 15 120 4.8 11.3 0.00 0.00 0.00 84 1014.9
20210224072846 15 176 4.8 11.3 0.00 0.00 0.00 84 1014.9
20210224072753 15 175 4.8 11.3 0.00 0.00 0.00 84 1014.8
20210224072628 15 185 6.4 11.3 0.00 0.00 0.00 84 1014.8
20210224072458 15 165 6.4 11.3 0.00 0.00 0.00 84 1014.9
20210224072402 15 145 6.4 11.3 0.00 0.00 0.00 85 1014.8
20210224072245 15 154 4.8 11.3 0.00 0.00 0.00 84 1014.9
20210224072143 15 173 4.8 9.7 0.00 0.00 0.00 84 1014.8
20210224072051 15 113 6.4 9.7 0.00 0.00 0.00 84 1014.8
20210224071944 15 117 8.0 9.7 0.00 0.00 0.00 84 1014.8
20210224071844 15 145 6.4 9.7 0.00 0.00 0.00 84 1014.8
20210224071742 15 179 6.4 8.0 0.00 0.00 0.00 84 1014.8
20210224071643 15 173 3.2 11.3 0.00 0.00 0.00 84 1014.8
20210224071542 15 173 3.2 11.3 0.00 0.00 0.00 84 1014.8
20210224071442 15 173 3.2 11.3 0.00 0.00 0.00 84 1014.8
20210224071343 15 173 3.2 11.3 0.00 0.00 0.00 84 1014.8
20210224071239 15 173 3.2 11.3 0.00 0.00 0.00 84 1014.8
20210224071142 15 140 3.2 11.3 0.00 0.00 0.00 84 1014.8
20210224071044 15 189 3.2 11.3 0.00 0.00 0.00 84 1014.8
20210224070939 15 166 3.2 11.3 0.00 0.00 0.00 84 1014.8
20210224070840 15 212 6.4 11.3 0.00 0.00 0.00 84 1014.8
20210224070739 15 197 6.4 11.3 0.00 0.00 0.00 84 1014.8
20210224070640 15 71 4.8 11.3 0.00 0.00 0.00 84 1014.8
20210224070539 15 166 3.2 11.3 0.00 0.00 0.00 84 1014.8
20210224070438 15 159 3.2 11.3 0.00 0.00 0.00 84 1014.8
20210224070339 15 155 4.8 11.3 0.00 0.00 0.00 84 1014.9
20210224070243 15 97 6.4 11.3 0.00 0.00 0.00 84 1014.8
20210224070148 15 220 8.0 11.3 0.00 0.00 0.00 84 1014.9
20210224070045 15 152 6.4 9.7 0.00 0.00 0.00 84 1014.9
20210224065945 15 199 6.4 11.3 0.00 0.00 0.00 84 1014.9
20210224065840 15 158 4.8 11.3 0.00 0.00 0.00 84 1014.9
20210224065741 15 144 4.8 11.3 0.00 0.00 0.00 84 1014.9
20210224065639 15 164 6.4 11.3 0.00 0.00 0.00 84 1014.9
20210224065546 15 133 6.4 11.3 0.00 0.00 0.00 84 1014.9
20210224065516 15 124 6.4 11.3 0.00 0.00 0.00 84 1014.9
20210224065433 15 188 6.4 14.5 0.00 0.00 0.00 84 1015.0
20210224065419 15 189 4.8 14.5 0.00 0.00 0.00 84 1014.9
20210224065411 15 217 6.4 14.5 0.00 0.00 0.00 83 1014.9
20210224065345 15 118 6.4 14.5 0.00 0.00 0.00 83 1014.9
20210224065209 15 117 6.4 14.5 0.00 0.00 0.00 83 1014.9
20210224065038 15 173 6.4 14.5 0.00 0.00 0.00 83 1014.9
20210224064756 15 130 4.8 14.5 0.00 0.00 0.00 83 1014.9
20210224064640 15 147 4.8 14.5 0.00 0.00 0.00 83 1014.8
20210224064541 15 123 8.0 14.5 0.00 0.00 0.00 83 1014.8
20210224064438 15 185 6.4 14.5 0.00 0.00 0.00 83 1014.9
20210224064343 15 161 3.2 14.5 0.00 0.00 0.00 83 1014.9
20210224064239 15 147 4.8 14.5 0.00 0.00 0.00 83 1014.8
20210224064142 15 161 4.8 14.5 0.00 0.00 0.00 83 1014.9
20210224064043 15 102 4.8 11.3 0.00 0.00 0.00 83 1014.9
20210224063938 15 197 6.4 11.3 0.00 0.00 0.00 83 1014.9
20210224063833 15 140 6.4 11.3 0.00 0.00 0.00 83 1014.9
20210224063733 15 109 6.4 11.3 0.00 0.00 0.00 83 1014.9
20210224063631 15 180 6.4 14.5 0.00 0.00 0.00 83 1014.9
20210224063535 15 155 6.4 14.5 0.00 0.00 0.00 83 1014.9
20210224063426 15 228 4.8 14.5 0.00 0.00 0.00 83 1014.9
20210224063329 15 141 4.8 14.5 0.00 0.00 0.00 83 1014.9
20210224063226 15 224 6.4 14.5 0.00 0.00 0.00 83 1014.9
20210224063122 15 140 6.4 14.5 0.00 0.00 0.00 83 1014.9
20210224063029 15 149 6.4 14.5 0.00 0.00 0.00 83 1015.1
20210224062918 15 145 6.4 14.5 0.00 0.00 0.00 83 1015.0
20210224062855 15 85 6.4 14.5 0.00 0.00 0.00 83 1015.0
20210224062808 15 117 6.4 11.3 0.00 0.00 0.00 83 1015.0
20210224062717 15 145 6.4 11.3 0.00 0.00 0.00 83 1015.1
20210224062611 15 161 6.4 11.3 0.00 0.00 0.00 83 1015.1
20210224062454 15 176 4.8 11.3 0.00 0.00 0.00 83 1015.1
20210224062311 15 131 4.8 11.3 0.00 0.00 0.00 83 1015.0
20210224062212 15 107 4.8 11.3 0.00 0.00 0.00 83 1015.2
20210224062111 15 137 4.8 11.3 0.00 0.00 0.00 83 1015.2
20210224062025 15 180 6.4 11.3 0.00 0.00 0.00 83 1015.2
20210224061920 15 209 4.8 11.3 0.00 0.00 0.00 83 1015.1
20210224061809 15 147 4.8 11.3 0.00 0.00 0.00 83 1015.1
20210224061711 15 147 6.4 11.3 0.00 0.00 0.00 83 1015.1
20210224061611 15 165 4.8 11.3 0.00 0.00 0.00 83 1015.1
20210224061525 15 131 4.8 11.3 0.00 0.00 0.00 83 1015.1
20210224061409 15 176 4.8 11.3 0.00 0.00 0.00 83 1015.1
20210224061311 15 147 4.8 11.3 0.00 0.00 0.00 83 1015.1
20210224061210 15 192 4.8 11.3 0.00 0.00 0.00 83 1015.2
20210224061115 15 94 4.8 14.5 0.00 0.00 0.00 83 1015.1
20210224061025 15 144 4.8 14.5 0.00 0.00 0.00 82 1015.1
20210224060913 15 207 4.8 14.5 0.00 0.00 0.00 82 1015.1
20210224060810 15 59 6.4 14.5 0.00 0.00 0.00 82 1015.2
20210224060713 15 117 6.4 14.5 0.00 0.00 0.00 82 1015.1
20210224060611 15 192 6.4 14.5 0.00 0.00 0.00 83 1015.2
20210224060521 15 189 6.4 14.5 0.00 0.00 0.00 83 1015.2
20210224060410 15 200 4.8 14.5 0.00 0.00 0.00 83 1015.1
20210224060311 15 78 8.0 14.5 0.00 0.00 0.00 83 1015.2
20210224060209 15 144 8.0 16.1 0.00 0.00 0.00 83 1015.2
20210224060110 15 185 4.8 16.1 0.00 0.00 0.00 83 1015.2
20210224060020 15 185 6.4 16.1 0.00 0.00 0.00 83 1015.1
20210224055911 15 183 6.4 16.1 0.00 0.00 0.00 83 1015.1
20210224055810 15 161 4.8 16.1 0.00 0.00 0.00 83 1015.1
20210224055718 15 147 6.4 16.1 0.00 0.00 0.00 83 1015.2
20210224055612 15 162 6.4 16.1 0.00 0.00 0.00 83 1015.1
20210224055517 15 169 6.4 16.1 0.00 0.00 0.00 83 1015.1
20210224055410 15 154 6.4 16.1 0.00 0.00 0.00 83 1015.2
20210224055341 15 226 6.4 16.1 0.00 0.00 0.00 83 1015.1
20210224055332 15 200 6.4 14.5 0.00 0.00 0.00 83 1015.1
20210224055257 15 155 4.8 14.5 0.00 0.00 0.00 83 1015.2
20210224055126 15 142 4.8 9.7 0.00 0.00 0.00 83 1015.1
20210224055021 15 138 6.4 9.7 0.00 0.00 0.00 83 1015.2
20210224054828 15 134 6.4 11.3 0.00 0.00 0.00 83 1015.2
20210224054713 15 148 4.8 11.3 0.00 0.00 0.00 83 1015.1
20210224054626 15 142 3.2 14.5 0.00 0.00 0.00 83 1015.1
20210224054517 15 128 4.8 14.5 0.00 0.00 0.00 83 1015.2
20210224054410 15 186 4.8 14.5 0.00 0.00 0.00 83 1015.2
20210224054311 15 183 6.4 14.5 0.00 0.00 0.00 83 1015.3
20210224054210 15 178 4.8 14.5 0.00 0.00 0.00 83 1015.2
20210224054111 15 221 4.8 14.5 0.00 0.00 0.00 83 1015.3
20210224054022 15 185 6.4 14.5 0.00 0.00 0.00 83 1015.3
20210224053911 15 183 3.2 14.5 0.00 0.00 0.00 82 1015.3
20210224053813 15 164 4.8 14.5 0.00 0.00 0.00 82 1015.3
20210224053710 15 231 6.4 14.5 0.00 0.00 0.00 82 1015.3
20210224053611 15 178 4.8 11.3 0.00 0.00 0.00 82 1015.3
20210224053521 15 137 4.8 11.3 0.00 0.00 0.00 82 1015.3
20210224053409 15 141 6.4 11.3 0.00 0.00 0.00 82 1015.4
20210224053312 15 135 6.4 11.3 0.00 0.00 0.00 82 1015.4
20210224053211 15 179 6.4 11.3 0.00 0.00 0.00 82 1015.4
20210224053110 15 157 4.8 11.3 0.00 0.00 0.00 82 1015.4
20210224053023 15 169 4.8 9.7 0.00 0.00 0.00 82 1015.4
20210224052936 15 107 6.4 9.7 0.00 0.00 0.00 82 1015.4
20210224052927 15 124 4.8 9.7 0.00 0.00 0.00 82 1015.4
20210224052911 15 197 3.2 16.1 0.00 0.00 0.00 82 1015.5
20210224052800 15 123 3.2 16.1 0.00 0.00 0.00 82 1015.5
20210224052615 15 237 4.8 16.1 0.00 0.00 0.00 82 1015.5
20210224052441 15 173 6.4 16.1 0.00 0.00 0.00 82 1015.5
20210224052306 15 190 4.8 16.1 0.00 0.00 0.00 82 1015.5
20210224052201 15 192 3.2 16.1 0.00 0.00 0.00 82 1015.6
20210224052059 15 99 3.2 16.1 0.00 0.00 0.00 82 1015.5
20210224051957 15 140 4.8 16.1 0.00 0.00 0.00 82 1015.5
20210224051856 15 144 8.0 16.1 0.00 0.00 0.00 82 1015.5
20210224051755 15 149 8.0 16.1 0.00 0.00 0.00 82 1015.5
20210224051654 15 180 4.8 14.5 0.00 0.00 0.00 81 1015.5
20210224051554 15 178 4.8 14.5 0.00 0.00 0.00 81 1015.5
20210224051451 15 175 6.4 14.5 0.00 0.00 0.00 81 1015.6
20210224051349 15 195 6.4 14.5 0.00 0.00 0.00 81 1015.5
20210224051247 15 173 4.8 11.3 0.00 0.00 0.00 81 1015.6
20210224051146 15 128 4.8 14.5 0.00 0.00 0.00 81 1015.5
20210224051044 15 203 6.4 14.5 0.00 0.00 0.00 81 1015.6
20210224050943 15 200 6.4 14.5 0.00 0.00 0.00 81 1015.6
20210224050840 15 190 6.4 14.5 0.00 0.00 0.00 81 1015.6
20210224050740 15 162 4.8 14.5 0.00 0.00 0.00 81 1015.6
20210224050642 15 172 6.4 14.5 0.00 0.00 0.00 81 1015.6
20210224050541 15 157 6.4 14.5 0.00 0.00 0.00 81 1015.6
20210224050438 15 83 4.8 14.5 0.00 0.00 0.00 81 1015.6
20210224050340 15 185 6.4 14.5 0.00 0.00 0.00 81 1015.6
20210224050240 15 169 6.4 16.1 0.00 0.00 0.00 81 1015.7
20210224050149 15 149 4.8 16.1 0.00 0.00 0.00 81 1015.7
20210224050046 15 199 6.4 16.1 0.00 0.00 0.00 81 1015.6
20210224045939 15 203 4.8 16.1 0.00 0.00 0.00 81 1015.7
20210224045832 15 117 6.4 16.1 0.00 0.00 0.00 81 1015.6
20210224045730 15 193 6.4 24.1 0.00 0.00 0.00 80 1015.7
20210224045630 15 128 6.4 24.1 0.00 0.00 0.00 80 1015.6
20210224045549 15 171 8.0 24.1 0.00 0.00 0.00 80 1015.7
20210224045425 15 220 8.0 24.1 0.00 0.00 0.00 80 1015.7
20210224045323 15 175 6.4 24.1 0.00 0.00 0.00 80 1015.7
20210224045235 15 158 6.4 24.1 0.00 0.00 0.00 80 1015.7
20210224045157 15 192 4.8 24.1 0.00 0.00 0.00 80 1015.7
20210224045105 15 137 6.4 24.1 0.00 0.00 0.00 80 1015.8
20210224044923 15 169 11.3 24.1 0.00 0.00 0.00 80 1015.7
20210224044829 15 149 12.9 24.1 0.00 0.00 0.00 80 1015.7
20210224044716 15 133 9.7 19.3 0.00 0.00 0.00 80 1015.7
20210224044612 15 200 8.0 19.3 0.00 0.00 0.00 80 1015.7
20210224044522 15 186 4.8 19.3 0.00 0.00 0.00 80 1015.7
20210224044410 15 214 4.8 19.3 0.00 0.00 0.00 80 1015.8
20210224044312 15 104 6.4 19.3 0.00 0.00 0.00 80 1015.7
20210224044210 15 165 6.4 19.3 0.00 0.00 0.00 80 1015.7
20210224044112 15 162 9.7 19.3 0.00 0.00 0.00 80 1015.7
20210224044021 15 23 9.7 19.3 0.00 0.00 0.00 80 1015.7
20210224043909 15 166 9.7 19.3 0.00 0.00 0.00 80 1015.7
20210224043811 15 195 8.0 16.1 0.00 0.00 0.00 80 1015.7
20210224043717 15 276 8.0 17.7 0.00 0.00 0.00 80 1015.7
20210224043619 15 183 6.4 17.7 0.00 0.00 0.00 80 1015.7
20210224043526 15 159 6.4 17.7 0.00 0.00 0.00 80 1015.7
20210224043410 15 148 8.0 20.9 0.00 0.00 0.00 80 1015.7
20210224043313 15 192 8.0 20.9 0.00 0.00 0.00 80 1015.8
20210224043211 15 192 8.0 20.9 0.00 0.00 0.00 80 1015.7
20210224043111 15 238 6.4 20.9 0.00 0.00 0.00 80 1015.8
20210224043022 15 217 6.4 20.9 0.00 0.00 0.00 80 1015.8
20210224042916 16 151 6.4 22.5 0.00 0.00 0.00 80 1015.7
20210224042810 15 137 9.7 22.5 0.00 0.00 0.00 80 1015.7
20210224042723 16 94 9.7 22.5 0.00 0.00 0.00 80 1015.8
20210224042644 16 258 9.7 22.5 0.00 0.00 0.00 80 1015.7
20210224042520 15 214 9.7 22.5 0.00 0.00 0.00 80 1015.7
20210224042416 15 100 8.0 22.5 0.00 0.00 0.00 80 1015.7
20210224042318 16 171 8.0 22.5 0.00 0.00 0.00 80 1015.8
20210224042213 16 102 9.7 22.5 0.00 0.00 0.00 80 1015.7
20210224042110 16 134 12.9 22.5 0.00 0.00 0.00 80 1015.7
20210224042025 15 196 9.7 22.5 0.00 0.00 0.00 80 1015.7
20210224041911 15 192 8.0 19.3 0.00 0.00 0.00 80 1015.7
20210224041805 15 166 9.7 19.3 0.00 0.00 0.00 80 1015.7
20210224041705 15 0 8.0 19.3 0.00 0.00 0.00 80 1015.8
20210224041606 15 28 8.0 17.7 0.00 0.00 0.00 80 1015.7
20210224041517 15 185 8.0 17.7 0.00 0.00 0.00 80 1015.7
20210224041359 15 204 8.0 17.7 0.00 0.00 0.00 80 1015.6
20210224041303 15 228 9.7 17.7 0.00 0.00 0.00 80 1015.7
20210224041139 15 102 9.7 17.7 0.00 0.00 0.00 80 1015.7
20210224041040 16 214 8.0 20.9 0.00 0.00 0.00 79 1015.7
20210224040951 16 125 6.4 20.9 0.00 0.00 0.00 79 1015.7
20210224040838 16 145 8.0 22.5 0.00 0.00 0.00 79 1015.7
20210224040745 16 157 9.7 22.5 0.00 0.00 0.00 79 1015.7
20210224040640 16 144 8.0 22.5 0.00 0.00 0.00 79 1015.7
20210224040541 16 149 6.4 22.5 0.00 0.00 0.00 79 1015.7
20210224040443 16 190 6.4 22.5 0.00 0.00 0.00 79 1015.7
20210224040339 16 209 8.0 22.5 0.00 0.00 0.00 79 1015.8
20210224040242 16 82 9.7 22.5 0.00 0.00 0.00 79 1015.8
20210224040138 16 162 11.3 22.5 0.00 0.00 0.00 80 1015.7
20210224040041 16 186 9.7 22.5 0.00 0.00 0.00 80 1015.8
20210224035939 16 142 8.0 22.5 0.00 0.00 0.00 80 1015.7
20210224035842 16 200 6.4 17.7 0.00 0.00 0.00 79 1015.8
20210224035740 16 151 6.4 17.7 0.00 0.00 0.00 80 1015.8
20210224035642 16 162 4.8 17.7 0.00 0.00 0.00 80 1015.9
20210224035542 16 182 4.8 17.7 0.00 0.00 0.00 79 1015.9
20210224035441 16 148 8.0 17.7 0.00 0.00 0.00 79 1015.9
20210224035339 16 192 9.7 19.3 0.00 0.00 0.00 79 1015.9
20210224035244 16 124 9.7 19.3 0.00 0.00 0.00 80 1015.9
20210224035230 16 135 8.0 19.3 0.00 0.00 0.00 80 1015.9
20210224035136 16 241 6.4 19.3 0.00 0.00 0.00 80 1016.0
20210224034947 16 109 8.0 19.3 0.00 0.00 0.00 80 1015.9
20210224034847 16 266 8.0 19.3 0.00 0.00 0.00 80 1015.9
20210224034738 16 127 6.4 19.3 0.00 0.00 0.00 80 1015.9
20210224034639 16 185 6.4 19.3 0.00 0.00 0.00 80 1015.9
20210224034539 16 75 8.0 19.3 0.00 0.00 0.00 80 1015.9
20210224034439 15 196 8.0 19.3 0.00 0.00 0.00 80 1015.9
20210224034337 15 90 6.4 16.1 0.00 0.00 0.00 80 1015.9
20210224034237 15 173 6.4 16.1 0.00 0.00 0.00 80 1016.0
20210224034139 15 157 4.8 14.5 0.00 0.00 0.00 80 1015.9
20210224034040 16 128 4.8 14.5 0.00 0.00 0.00 80 1015.9
20210224033938 16 114 4.8 14.5 0.00 0.00 0.00 80 1015.9
20210224033839 16 192 4.8 14.5 0.00 0.00 0.00 80 1015.8
20210224033744 16 89 6.4 14.5 0.00 0.00 0.00 80 1015.9
20210224033637 16 168 8.0 14.5 0.00 0.00 0.00 80 1015.8
20210224033542 16 179 6.4 14.5 0.00 0.00 0.00 80 1015.9
20210224033439 16 127 6.4 14.5 0.00 0.00 0.00 80 1015.9
20210224033340 16 148 6.4 16.1 0.00 0.00 0.00 80 1015.9
20210224033239 16 190 6.4 16.1 0.00 0.00 0.00 80 1015.9
20210224033137 16 157 3.2 17.7 0.00 0.00 0.00 80 1015.9
20210224033040 16 299 3.2 17.7 0.00 0.00 0.00 79 1015.9
20210224032937 16 116 4.8 17.7 0.00 0.00 0.00 79 1015.9
20210224032853 16 16 4.8 17.7 0.00 0.00 0.00 79 1015.9
20210224032813 16 141 6.4 17.7 0.00 0.00 0.00 79 1015.9
20210224032738 16 228 6.4 17.7 0.00 0.00 0.00 79 1015.9
20210224032702 16 206 8.0 17.7 0.00 0.00 0.00 79 1016.0
20210224032450 16 161 8.0 17.7 0.00 0.00 0.00 79 1016.0
20210224032338 16 209 8.0 17.7 0.00 0.00 0.00 79 1016.0
20210224032238 16 127 6.4 14.5 0.00 0.00 0.00 79 1016.0
20210224032137 16 127 4.8 16.1 0.00 0.00 0.00 79 1015.9
20210224032037 16 171 6.4 16.1 0.00 0.00 0.00 79 1015.9
20210224031938 16 106 6.4 16.1 0.00 0.00 0.00 79 1015.9
20210224031840 16 106 6.4 17.7 0.00 0.00 0.00 79 1015.9
20210224031736 16 216 6.4 17.7 0.00 0.00 0.00 79 1016.0
20210224031637 16 172 8.0 17.7 0.00 0.00 0.00 79 1015.8
20210224031541 16 166 6.4 17.7 0.00 0.00 0.00 79 1015.9
20210224031436 16 41 8.0 17.7 0.00 0.00 0.00 79 1015.9
20210224031340 16 155 8.0 17.7 0.00 0.00 0.00 78 1015.9
20210224031240 16 128 4.8 17.7 0.00 0.00 0.00 78 1015.9
20210224031137 16 131 4.8 17.7 0.00 0.00 0.00 78 1015.9
20210224031042 16 147 6.4 17.7 0.00 0.00 0.00 78 1015.9
20210224030938 16 197 6.4 17.7 0.00 0.00 0.00 78 1016.0
20210224030836 16 118 6.4 16.1 0.00 0.00 0.00 78 1015.9
20210224030738 16 193 6.4 16.1 0.00 0.00 0.00 78 1015.9
20210224030639 16 192 6.4 17.7 0.00 0.00 0.00 78 1015.9
20210224030535 16 149 4.8 17.7 0.00 0.00 0.00 78 1015.9
20210224030434 16 171 8.0 17.7 0.00 0.00 0.00 78 1015.9
20210224030334 16 221 9.7 17.7 0.00 0.00 0.00 78 1015.9
20210224030234 16 141 8.0 17.7 0.00 0.00 0.00 78 1015.9
20210224030130 16 157 6.4 17.7 0.00 0.00 0.00 78 1015.8
20210224030024 16 155 8.0 17.7 0.00 0.00 0.00 78 1015.9
20210224025913 16 159 6.4 17.7 0.00 0.00 0.00 78 1015.8
20210224025810 16 190 6.4 17.7 0.00 0.00 0.00 78 1015.9
20210224025711 16 111 6.4 17.7 0.00 0.00 0.00 77 1015.9
20210224025611 16 130 4.8 16.1 0.00 0.00 0.00 77 1015.9
20210224025524 16 141 4.8 16.1 0.00 0.00 0.00 77 1015.8
20210224025411 16 99 4.8 16.1 0.00 0.00 0.00 77 1015.8
20210224025335 16 28 4.8 16.1 0.00 0.00 0.00 77 1015.8
20210224025325 16 128 8.0 16.1 0.00 0.00 0.00 77 1015.8
20210224025313 16 230 8.0 17.7 0.00 0.00 0.00 77 1015.9
20210224025153 16 151 8.0 19.3 0.00 0.00 0.00 77 1015.8
20210224025046 16 182 6.4 19.3 0.00 0.00 0.00 77 1015.7
20210224024846 16 128 6.4 19.3 0.00 0.00 0.00 76 1015.7
20210224024710 16 178 6.4 19.3 0.00 0.00 0.00 76 1015.7
20210224024613 16 123 8.0 19.3 0.00 0.00 0.00 76 1015.8
20210224024521 16 151 8.0 19.3 0.00 0.00 0.00 76 1015.8
20210224024410 16 144 6.4 19.3 0.00 0.00 0.00 76 1015.8
20210224024309 16 158 8.0 19.3 0.00 0.00 0.00 76 1015.8
20210224024211 16 166 9.7 19.3 0.00 0.00 0.00 76 1015.8
20210224024110 16 166 8.0 19.3 0.00 0.00 0.00 76 1015.8
20210224024024 16 140 4.8 14.5 0.00 0.00 0.00 76 1015.8
20210224023910 16 185 4.8 14.5 0.00 0.00 0.00 76 1015.7
20210224023812 16 130 6.4 14.5 0.00 0.00 0.00 76 1015.7
20210224023709 16 171 6.4 16.1 0.00 0.00 0.00 76 1015.7
20210224023609 16 169 8.0 17.7 0.00 0.00 0.00 76 1015.7
20210224023520 16 157 6.4 17.7 0.00 0.00 0.00 75 1015.6
20210224023410 16 172 6.4 22.5 0.00 0.00 0.00 75 1015.7
20210224023310 16 135 4.8 22.5 0.00 0.00 0.00 75 1015.6
20210224023210 16 89 6.4 22.5 0.00 0.00 0.00 75 1015.6
20210224023111 17 162 8.0 22.5 0.00 0.00 0.00 75 1015.6
20210224023024 17 135 6.4 22.5 0.00 0.00 0.00 75 1015.5
20210224022929 17 171 8.0 22.5 0.00 0.00 0.00 75 1015.6
20210224022917 17 142 9.7 22.5 0.00 0.00 0.00 75 1015.6
20210224022855 17 158 8.0 22.5 0.00 0.00 0.00 75 1015.6
20210224022755 17 197 9.7 22.5 0.00 0.00 0.00 75 1015.6
20210224022550 17 210 12.9 22.5 0.00 0.00 0.00 75 1015.6
20210224022443 17 142 9.7 19.3 0.00 0.00 0.00 75 1015.6
20210224022318 17 121 8.0 19.3 0.00 0.00 0.00 75 1015.6
20210224022209 17 109 8.0 19.3 0.00 0.00 0.00 75 1015.6
20210224022110 17 147 6.4 19.3 0.00 0.00 0.00 75 1015.5
20210224022033 17 175 9.7 19.3 0.00 0.00 0.00 75 1015.6
20210224021913 17 124 9.7 19.3 0.00 0.00 0.00 75 1015.5
20210224021811 17 178 8.0 19.3 0.00 0.00 0.00 75 1015.6
20210224021713 17 117 6.4 17.7 0.00 0.00 0.00 74 1015.5
20210224021612 17 83 8.0 17.7 0.00 0.00 0.00 75 1015.6
20210224021527 17 168 6.4 17.7 0.00 0.00 0.00 75 1015.5
20210224021409 17 133 8.0 16.1 0.00 0.00 0.00 75 1015.5
20210224021314 17 180 9.7 16.1 0.00 0.00 0.00 75 1015.5
20210224021210 17 164 8.0 17.7 0.00 0.00 0.00 74 1015.6
20210224021112 17 135 8.0 17.7 0.00 0.00 0.00 74 1015.5
20210224021024 17 179 6.4 17.7 0.00 0.00 0.00 74 1015.6
20210224020909 17 145 6.4 17.7 0.00 0.00 0.00 74 1015.6
20210224020813 17 71 6.4 17.7 0.00 0.00 0.00 74 1015.6
20210224020711 17 171 4.8 17.7 0.00 0.00 0.00 74 1015.5
20210224020612 17 135 6.4 17.7 0.00 0.00 0.00 74 1015.5
20210224020518 17 138 9.7 17.7 0.00 0.00 0.00 73 1015.5
20210224020412 17 111 9.7 17.7 0.00 0.00 0.00 73 1015.5
20210224020312 17 131 9.7 17.7 0.00 0.00 0.00 73 1015.4
20210224020209 17 196 6.4 14.5 0.00 0.00 0.00 73 1015.4
20210224020111 17 159 6.4 14.5 0.00 0.00 0.00 73 1015.4
20210224020024 17 78 6.4 14.5 0.00 0.00 0.00 73 1015.4
20210224015909 17 131 6.4 14.5 0.00 0.00 0.00 73 1015.4
20210224015810 17 135 4.8 14.5 0.00 0.00 0.00 73 1015.4
20210224015711 17 120 6.4 14.5 0.00 0.00 0.00 73 1015.4
20210224015610 17 165 6.4 14.5 0.00 0.00 0.00 73 1015.4
20210224015520 17 90 4.8 14.5 0.00 0.00 0.00 72 1015.5
20210224015413 17 175 6.4 14.5 0.00 0.00 0.00 72 1015.5
20210224015312 17 113 8.0 14.5 0.00 0.00 0.00 72 1015.4
20210224015211 17 141 4.8 14.5 0.00 0.00 0.00 72 1015.5
20210224015110 17 96 4.8 14.5 0.00 0.00 0.00 72 1015.4
20210224015022 17 89 6.4 14.5 0.00 0.00 0.00 72 1015.5
20210224014911 17 140 6.4 14.5 0.00 0.00 0.00 71 1015.5
20210224014809 17 209 6.4 11.3 0.00 0.00 0.00 71 1015.4
20210224014713 17 120 6.4 11.3 0.00 0.00 0.00 71 1015.4
20210224014611 17 144 6.4 11.3 0.00 0.00 0.00 71 1015.4
20210224014522 17 155 6.4 11.3 0.00 0.00 0.00 71 1015.5
20210224014409 17 89 8.0 11.3 0.00 0.00 0.00 70 1015.4
20210224014314 17 161 6.4 14.5 0.00 0.00 0.00 70 1015.4
20210224014210 17 161 6.4 24.1 0.00 0.00 0.00 70 1015.3
20210224014110 17 159 3.2 24.1 0.00 0.00 0.00 69 1015.3
20210224014017 17 159 3.2 24.1 0.00 0.00 0.00 69 1015.3
20210224013910 17 159 3.2 24.1 0.00 0.00 0.00 69 1015.3
20210224013811 17 159 3.2 24.1 0.00 0.00 0.00 69 1015.3
20210224013713 17 133 3.2 24.1 0.00 0.00 0.00 69 1015.3
20210224013612 17 157 4.8 24.1 0.00 0.00 0.00 69 1015.3
20210224013517 17 106 4.8 24.1 0.00 0.00 0.00 69 1015.2
20210224013414 18 133 8.0 24.1 0.00 0.00 0.00 69 1015.2
20210224013311 18 140 6.4 24.1 0.00 0.00 0.00 69 1015.2
20210224013210 18 157 4.8 16.1 0.00 0.00 0.00 68 1015.2
20210224013112 18 107 4.8 16.1 0.00 0.00 0.00 68 1015.2
20210224013027 18 113 3.2 16.1 0.00 0.00 0.00 68 1015.2
20210224012939 18 155 4.8 16.1 0.00 0.00 0.00 68 1015.2
20210224012929 18 166 6.4 16.1 0.00 0.00 0.00 68 1015.2
20210224012914 18 190 8.0 16.1 0.00 0.00 0.00 68 1015.1
20210224012754 18 152 9.7 16.1 0.00 0.00 0.00 68 1015.2
20210224012636 18 179 8.0 14.5 0.00 0.00 0.00 68 1015.1
20210224012440 18 104 6.4 14.5 0.00 0.00 0.00 67 1015.1
20210224012318 18 162 4.8 16.1 0.00 0.00 0.00 67 1015.1
20210224012212 18 93 6.4 16.1 0.00 0.00 0.00 67 1015.0
20210224012111 18 148 6.4 16.1 0.00 0.00 0.00 67 1015.0
20210224012021 18 102 6.4 19.3 0.00 0.00 0.00 66 1015.0
20210224011910 18 155 6.4 19.3 0.00 0.00 0.00 66 1015.0
20210224011815 18 165 4.8 19.3 0.00 0.00 0.00 66 1015.0
20210224011710 18 114 6.4 19.3 0.00 0.00 0.00 65 1015.0
20210224011615 18 148 4.8 19.3 0.00 0.00 0.00 65 1015.0
20210224011530 18 182 6.4 19.3 0.00 0.00 0.00 65 1015.0
20210224011409 18 176 8.0 19.3 0.00 0.00 0.00 65 1015.0
20210224011314 18 103 8.0 19.3 0.00 0.00 0.00 64 1015.0
20210224011210 18 135 9.7 19.3 0.00 0.00 0.00 64 1015.0
20210224011114 18 169 9.7 19.3 0.00 0.00 0.00 64 1015.0
20210224011025 18 106 6.4 16.1 0.00 0.00 0.00 64 1014.9
20210224010910 18 154 6.4 16.1 0.00 0.00 0.00 63 1014.9
20210224010809 18 89 8.0 16.1 0.00 0.00 0.00 63 1014.9
20210224010710 18 118 8.0 16.1 0.00 0.00 0.00 63 1014.9
20210224010613 18 103 8.0 16.1 0.00 0.00 0.00 63 1014.9
20210224010522 18 130 6.4 17.7 0.00 0.00 0.00 63 1014.9
20210224010409 18 109 6.4 17.7 0.00 0.00 0.00 63 1014.9
20210224010317 19 135 6.4 17.7 0.00 0.00 0.00 62 1014.9
20210224010211 19 220 6.4 17.7 0.00 0.00 0.00 62 1014.9
20210224010110 19 165 6.4 17.7 0.00 0.00 0.00 62 1014.9
20210224010035 19 148 4.8 17.7 0.00 0.00 0.00 62 1014.9
20210224005911 19 252 6.4 17.7 0.00 0.00 0.00 61 1014.9
20210224005811 19 106 6.4 17.7 0.00 0.00 0.00 61 1015.0
20210224005712 19 128 6.4 17.7 0.00 0.00 0.00 61 1014.9
20210224005611 19 149 6.4 17.7 0.00 0.00 0.00 61 1014.8
20210224005517 19 110 8.0 17.7 0.00 0.00 0.00 60 1014.9
20210224005411 19 71 8.0 17.7 0.00 0.00 0.00 60 1014.8
20210224005349 19 154 6.4 17.7 0.00 0.00 0.00 60 1014.8
20210224005330 19 176 6.4 19.3 0.00 0.00 0.00 60 1014.9
20210224005311 19 203 6.4 19.3 0.00 0.00 0.00 60 1014.9
20210224005123 19 148 6.4 19.3 0.00 0.00 0.00 60 1014.8
20210224004954 19 142 6.4 19.3 0.00 0.00 0.00 59 1014.8
20210224004847 20 24 8.0 19.3 0.00 0.00 0.00 59 1014.8
20210224004710 20 238 6.4 19.3 0.00 0.00 0.00 59 1014.8
20210224004610 20 175 4.8 19.3 0.00 0.00 0.00 59 1014.8
20210224004523 20 73 4.8 19.3 0.00 0.00 0.00 59 1014.8
20210224004410 20 125 9.7 19.3 0.00 0.00 0.00 58 1014.8
20210224004309 20 138 9.7 19.3 0.00 0.00 0.00 58 1014.8
20210224004216 20 169 6.4 19.3 0.00 0.00 0.00 58 1014.8
20210224004117 20 103 8.0 19.3 0.00 0.00 0.00 57 1014.8
20210224004026 20 111 9.7 19.3 0.00 0.00 0.00 57 1014.8
20210224003913 20 142 9.7 19.3 0.00 0.00 0.00 57 1014.8
20210224003811 20 102 9.7 19.3 0.00 0.00 0.00 57 1014.8
20210224003711 20 89 6.4 19.3 0.00 0.00 0.00 56 1014.8
20210224003611 20 162 8.0 19.3 0.00 0.00 0.00 56 1014.8
20210224003526 20 162 8.0 19.3 0.00 0.00 0.00 56 1014.8
20210224003411 20 113 8.0 19.3 0.00 0.00 0.00 56 1014.8
20210224003311 20 224 8.0 19.3 0.00 0.00 0.00 55 1014.8
20210224003219 20 185 6.4 19.3 0.00 0.00 0.00 55 1014.9
20210224003109 20 164 6.4 19.3 0.00 0.00 0.00 54 1014.9
20210224003021 20 168 6.4 19.3 0.00 0.00 0.00 54 1014.8
20210224002925 20 130 6.4 19.3 0.00 0.00 0.00 54 1014.7
20210224002851 20 147 6.4 19.3 0.00 0.00 0.00 53 1014.7
20210224002753 21 151 6.4 19.3 0.00 0.00 0.00 53 1014.7
20210224002733 21 114 9.7 19.3 0.00 0.00 0.00 52 1014.8
20210224002608 21 157 9.7 19.3 0.00 0.00 0.00 52 1014.7
20210224002447 21 175 8.0 17.7 0.00 0.00 0.00 52 1014.7
20210224002310 21 220 9.7 17.7 0.00 0.00 0.00 51 1014.7
20210224002209 21 138 9.7 17.7 0.00 0.00 0.00 51 1014.7
20210224002112 21 171 8.0 17.7 0.00 0.00 0.00 51 1014.8
20210224002022 21 186 6.4 19.3 0.00 0.00 0.00 50 1014.8
20210224001916 21 154 6.4 19.3 0.00 0.00 0.00 50 1014.8
20210224001813 21 138 6.4 19.3 0.00 0.00 0.00 49 1014.8
20210224001711 21 137 8.0 20.9 0.00 0.00 0.00 49 1014.7
20210224001618 21 178 8.0 20.9 0.00 0.00 0.00 48 1014.8
20210224001538 21 189 8.0 20.9 0.00 0.00 0.00 48 1014.7
20210224001410 21 179 8.0 24.1 0.00 0.00 0.00 47 1014.7
20210224001315 21 152 8.0 24.1 0.00 0.00 0.00 47 1014.7
20210224001209 21 186 8.0 24.1 0.00 0.00 0.00 47 1014.7
20210224001110 21 137 9.7 24.1 0.00 0.00 0.00 47 1014.7
20210224001025 21 159 9.7 24.1 0.00 0.00 0.00 47 1014.7
20210224000909 21 175 9.7 24.1 0.00 0.00 0.00 47 1014.7
20210224000810 21 190 11.3 24.1 0.00 0.00 0.00 47 1014.7
20210224000713 21 220 9.7 24.1 0.00 0.00 0.00 48 1014.7
20210224000610 21 100 9.7 24.1 0.00 0.00 0.00 47 1014.7
20210224000525 21 107 9.7 24.1 0.00 0.00 0.00 47 1014.6
20210224000413 21 116 8.0 20.9 0.00 0.00 0.00 47 1014.7
20210224000314 22 196 6.4 20.9 0.00 0.00 0.00 47 1014.8
20210224000210 22 272 11.3 20.9 0.00 0.00 0.00 47 1014.7
20210224000113 22 155 9.7 24.1 0.00 0.00 0.00 46 1014.7
20210224000025 22 172 6.4 24.1 0.00 0.00 0.00 46 1014.7
20210223235909 22 210 8.0 24.1 0.00 0.00 0.00 46 1014.7
20210223235810 22 155 6.4 24.1 0.00 0.00 0.00 46 1014.7
20210223235709 22 125 6.4 24.1 0.00 0.00 0.00 46 1014.7
20210223235609 22 237 6.4 24.1 0.00 0.00 0.00 45 1014.7
20210223235520 22 165 6.4 24.1 0.00 0.00 0.00 45 1014.7
20210223235415 22 212 8.0 24.1 0.00 0.00 0.00 44 1014.7
20210223235335 22 118 11.3 24.1 0.00 0.00 0.00 44 1014.7
20210223235210 22 173 9.7 24.1 0.00 0.00 0.00 44 1014.6
20210223235112 22 128 9.7 24.1 0.00 0.00 0.00 43 1014.6
20210223235023 22 116 12.9 24.1 0.00 0.00 0.00 43 1014.6
20210223234912 22 207 14.5 24.1 0.00 0.00 0.00 43 1014.6
20210223234813 22 161 12.9 24.1 0.00 0.00 0.00 43 1014.6
20210223234710 22 172 12.9 24.1 0.00 0.00 0.00 42 1014.6
20210223234619 22 214 9.7 22.5 0.00 0.00 0.00 41 1014.7
20210223234525 22 147 9.7 25.7 0.00 0.00 0.00 40 1014.7
20210223234413 22 186 9.7 25.7 0.00 0.00 0.00 40 1014.6
20210223234311 22 155 9.7 25.7 0.00 0.00 0.00 40 1014.7
20210223234212 22 117 9.7 25.7 0.00 0.00 0.00 39 1014.7
20210223234109 22 188 9.7 25.7 0.00 0.00 0.00 39 1014.6
20210223234036 23 250 8.0 25.7 0.00 0.00 0.00 39 1014.6
20210223233909 23 164 6.4 25.7 0.00 0.00 0.00 39 1014.7
20210223233813 23 183 9.7 25.7 0.00 0.00 0.00 39 1014.7
20210223233711 23 137 12.9 25.7 0.00 0.00 0.00 39 1014.7
20210223233610 23 164 12.9 25.7 0.00 0.00 0.00 39 1014.8
20210223233523 23 180 6.4 25.7 0.00 0.00 0.00 38 1014.7
20210223233410 23 251 11.3 25.7 0.00 0.00 0.00 38 1014.7
20210223233311 23 251 11.3 25.7 0.00 0.00 0.00 38 1014.7
20210223233211 23 251 11.3 25.7 0.00 0.00 0.00 38 1014.8
20210223233117 23 121 11.3 25.7 0.00 0.00 0.00 38 1014.8
20210223233024 23 173 11.3 25.7 0.00 0.00 0.00 38 1014.7
20210223232928 23 192 12.9 25.7 0.00 0.00 0.00 38 1014.7
20210223232920 23 165 12.9 25.7 0.00 0.00 0.00 38 1014.7
20210223232912 23 166 9.7 25.7 0.00 0.00 0.00 38 1014.7
20210223232825 23 135 9.7 25.7 0.00 0.00 0.00 38 1014.8
20210223232623 23 125 14.5 25.7 0.00 0.00 0.00 38 1014.7
20210223232447 23 135 12.9 24.1 0.00 0.00 0.00 37 1014.7
20210223232311 23 176 9.7 22.5 0.00 0.00 0.00 38 1014.7
20210223232213 23 199 8.0 22.5 0.00 0.00 0.00 38 1014.7
20210223232114 23 224 6.4 22.5 0.00 0.00 0.00 38 1014.6
20210223232025 23 197 6.4 22.5 0.00 0.00 0.00 38 1014.7
20210223231910 23 173 8.0 22.5 0.00 0.00 0.00 38 1014.7
20210223231810 23 151 8.0 24.1 0.00 0.00 0.00 38 1014.6
20210223231709 23 152 11.3 24.1 0.00 0.00 0.00 37 1014.7
20210223231610 23 195 12.9 24.1 0.00 0.00 0.00 37 1014.7
20210223231522 23 224 9.7 24.1 0.00 0.00 0.00 38 1014.7
20210223231410 23 171 8.0 24.1 0.00 0.00 0.00 38 1014.8
20210223231309 23 158 9.7 24.1 0.00 0.00 0.00 38 1014.7
20210223231213 23 38 11.3 24.1 0.00 0.00 0.00 38 1014.8
20210223231112 23 106 12.9 24.1 0.00 0.00 0.00 38 1014.7
20210223231026 24 168 12.9 24.1 0.00 0.00 0.00 38 1014.7
20210223230909 24 149 11.3 24.1 0.00 0.00 0.00 38 1014.7
20210223230812 24 120 12.9 22.5 0.00 0.00 0.00 38 1014.6